Time,TemperatureF,DewpointF,PressureIn,WindDirection,WindDirectionDegrees,WindSpeedMPH,WindSpeedGustMPH,Humidity,HourlyPrecipIn,Conditions,Clouds,dailyrainin,SoftwareType,DateUTC
2013-11-23 00:00:00,31.7,28.5,29.58,NW,326,8.0,10.0,88,0.00,,,0.07,WUHU216DAVISVP2,2013-11-23 05:00:00,
2013-11-23 00:01:00,31.7,28.5,29.58,NW,324,8.0,10.0,88,0.00,,,0.07,WUHU216DAVISVP2,2013-11-23 05:01:00,
2013-11-23 00:06:00,31.6,28.4,29.58,NNW,330,3.0,10.0,88,0.00,,,0.07,WUHU216DAVISVP2,2013-11-23 05:06:00,
2013-11-23 00:07:00,31.6,28.4,29.58,NW,313,8.0,10.0,88,0.00,,,0.07,WUHU216DAVISVP2,2013-11-23 05:07:00,
2013-11-23 00:11:00,31.6,28.4,29.58,NNW,336,7.0,10.0,88,0.00,,,0.07,WUHU216DAVISVP2,2013-11-23 05:11:00,
2013-11-23 00:12:00,31.6,28.1,29.58,NNW,330,6.0,10.0,87,0.00,,,0.00,WUHU216DAVISVP2,2013-11-23 05:12:00,
2013-11-23 00:16:00,31.6,28.1,29.58,NNW,339,7.0,11.0,87,0.00,,,0.00,WUHU216DAVISVP2,2013-11-23 05:16:00,
2013-11-23 00:17:00,31.6,28.1,29.58,NNW,328,8.0,11.0,87,0.00,,,0.00,WUHU216DAVISVP2,2013-11-23 05:17:00,
2013-11-23 00:21:00,31.6,28.1,29.58,NW,320,7.0,11.0,87,0.00,,,0.00,WUHU216DAVISVP2,2013-11-23 05:21:00,
2013-11-23 00:22:00,31.6,28.1,29.58,NW,309,7.0,11.0,87,0.00,,,0.00,WUHU216DAVISVP2,2013-11-23 05:22:00,
2013-11-23 00:23:00,31.6,28.1,29.58,NW,319,7.0,11.0,87,0.00,,,0.00,WUHU216DAVISVP2,2013-11-23 05:23:00,
2013-11-23 00:26:00,31.5,28.0,29.58,NW,314,4.0,11.0,87,0.00,,,0.00,WUHU216DAVISVP2,2013-11-23 05:26:00,
2013-11-23 00:27:00,31.5,28.0,29.58,NW,315,4.0,11.0,87,0.00,,,0.00,WUHU216DAVISVP2,2013-11-23 05:27:00,
2013-11-23 00:29:00,31.4,27.9,29.58,NW,310,7.0,11.0,87,0.00,,,0.00,WUHU216DAVISVP2,2013-11-23 05:29:00,
2013-11-23 00:32:00,31.4,27.9,29.58,NNW,330,7.0,11.0,87,0.00,,,0.00,WUHU216DAVISVP2,2013-11-23 05:32:00,
2013-11-23 00:34:00,31.3,27.8,29.58,NW,324,8.0,11.0,87,0.00,,,0.00,WUHU216DAVISVP2,2013-11-23 05:34:00,
2013-11-23 00:37:00,31.2,27.7,29.58,NW,320,7.0,11.0,87,0.00,,,0.00,WUHU216DAVISVP2,2013-11-23 05:37:00,
2013-11-23 00:38:00,31.2,28.0,29.58,NW,312,7.0,11.0,88,0.00,,,0.00,WUHU216DAVISVP2,2013-11-23 05:38:00,
2013-11-23 00:40:00,31.2,27.7,29.58,NNW,328,7.0,11.0,87,0.00,,,0.00,WUHU216DAVISVP2,2013-11-23 05:40:00,
2013-11-23 00:42:00,31.2,27.7,29.58,NW,322,7.0,11.0,87,0.00,,,0.00,WUHU216DAVISVP2,2013-11-23 05:42:00,
2013-11-23 00:43:00,31.2,28.0,29.58,NW,324,7.0,11.0,88,0.00,,,0.00,WUHU216DAVISVP2,2013-11-23 05:43:00,
2013-11-23 00:45:00,31.1,27.9,29.58,NW,316,6.0,11.0,88,0.00,,,0.00,WUHU216DAVISVP2,2013-11-23 05:45:00,
2013-11-23 00:47:00,31.1,27.9,29.58,NW,311,4.0,11.0,88,0.00,,,0.00,WUHU216DAVISVP2,2013-11-23 05:47:00,
2013-11-23 00:48:00,31.0,27.8,29.58,NW,308,6.0,11.0,88,0.00,,,0.00,WUHU216DAVISVP2,2013-11-23 05:48:00,
2013-11-23 00:51:00,31.0,27.8,29.58,NW,308,7.0,11.0,88,0.00,,,0.00,WUHU216DAVISVP2,2013-11-23 05:51:00,
2013-11-23 00:52:00,30.9,27.7,29.58,NW,315,6.0,10.0,88,0.00,,,0.00,WUHU216DAVISVP2,2013-11-23 05:52:00,
2013-11-23 00:53:00,30.9,27.7,29.58,NNW,328,8.0,10.0,88,0.00,,,0.00,WUHU216DAVISVP2,2013-11-23 05:53:00,
2013-11-23 00:54:00,30.9,27.7,29.58,NW,315,8.0,11.0,88,0.00,,,0.00,WUHU216DAVISVP2,2013-11-23 05:54:00,
2013-11-23 00:56:00,30.9,27.7,29.58,NW,309,6.0,11.0,88,0.00,,,0.00,WUHU216DAVISVP2,2013-11-23 05:56:00,
2013-11-23 00:57:00,30.9,27.7,29.58,NW,306,5.0,11.0,88,0.00,,,0.00,WUHU216DAVISVP2,2013-11-23 05:57:00,
2013-11-23 00:58:00,30.8,27.6,29.58,NW,312,8.0,11.0,88,0.00,,,0.00,WUHU216DAVISVP2,2013-11-23 05:58:00,
2013-11-23 00:59:00,30.8,27.6,29.58,NW,315,6.0,11.0,88,0.00,,,0.00,WUHU216DAVISVP2,2013-11-23 05:59:00,
2013-11-23 01:04:00,30.8,27.6,29.58,NW,316,5.0,11.0,88,0.00,,,0.00,WUHU216DAVISVP2,2013-11-23 06:04:00,
2013-11-23 01:09:00,30.6,27.7,29.58,NW,309,5.0,11.0,89,0.00,,,0.00,WUHU216DAVISVP2,2013-11-23 06:09:00,
2013-11-23 01:10:00,30.6,27.4,29.58,NW,325,7.0,11.0,88,0.00,,,0.00,WUHU216DAVISVP2,2013-11-23 06:10:00,
2013-11-23 01:14:00,30.6,27.7,29.58,NW,322,4.0,10.0,89,0.00,,,0.00,WUHU216DAVISVP2,2013-11-23 06:14:00,
2013-11-23 01:15:00,30.6,27.7,29.58,NW,323,7.0,10.0,89,0.00,,,0.00,WUHU216DAVISVP2,2013-11-23 06:15:00,
2013-11-23 01:19:00,30.5,27.6,29.58,NW,317,7.0,9.0,89,0.00,,,0.00,WUHU216DAVISVP2,2013-11-23 06:19:00,
2013-11-23 01:20:00,30.5,27.6,29.58,NW,312,6.0,9.0,89,0.00,,,0.00,WUHU216DAVISVP2,2013-11-23 06:20:00,
2013-11-23 01:25:00,30.6,27.7,29.57,NW,313,7.0,11.0,89,0.00,,,0.00,WUHU216DAVISVP2,2013-11-23 06:25:00,
2013-11-23 01:30:00,30.5,27.6,29.57,NW,316,7.0,11.0,89,0.00,,,0.00,WUHU216DAVISVP2,2013-11-23 06:30:00,
2013-11-23 01:31:00,30.5,27.6,29.57,NW,316,7.0,11.0,89,0.00,,,0.00,WUHU216DAVISVP2,2013-11-23 06:31:00,
2013-11-23 01:35:00,30.5,27.6,29.57,NW,312,7.0,11.0,89,0.00,,,0.00,WUHU216DAVISVP2,2013-11-23 06:35:00,
2013-11-23 01:36:00,30.5,27.6,29.57,NW,307,6.0,11.0,89,0.00,,,0.00,WUHU216DAVISVP2,2013-11-23 06:36:00,
2013-11-23 01:37:00,30.5,27.6,29.57,NW,314,6.0,11.0,89,0.00,,,0.00,WUHU216DAVISVP2,2013-11-23 06:37:00,
2013-11-23 01:40:00,30.6,27.7,29.57,NW,325,6.0,10.0,89,0.00,,,0.00,WUHU216DAVISVP2,2013-11-23 06:40:00,
2013-11-23 01:41:00,30.6,27.7,29.57,NW,316,4.0,10.0,89,0.00,,,0.00,WUHU216DAVISVP2,2013-11-23 06:41:00,
2013-11-23 01:42:00,30.6,27.4,29.57,NW,323,4.0,10.0,88,0.00,,,0.00,WUHU216DAVISVP2,2013-11-23 06:42:00,
2013-11-23 01:45:00,30.6,27.4,29.57,NW,323,7.0,10.0,88,0.00,,,0.00,WUHU216DAVISVP2,2013-11-23 06:45:00,
2013-11-23 01:46:00,30.6,27.4,29.57,NW,318,7.0,10.0,88,0.00,,,0.00,WUHU216DAVISVP2,2013-11-23 06:46:00,
2013-11-23 01:47:00,30.5,27.3,29.56,NW,320,5.0,10.0,88,0.00,,,0.00,WUHU216DAVISVP2,2013-11-23 06:47:00,
2013-11-23 01:49:00,30.5,27.3,29.57,NW,312,6.0,10.0,88,0.00,,,0.00,WUHU216DAVISVP2,2013-11-23 06:49:00,
2013-11-23 01:50:00,30.5,27.3,29.57,NW,304,6.0,10.0,88,0.00,,,0.00,WUHU216DAVISVP2,2013-11-23 06:50:00,
2013-11-23 01:51:00,30.4,27.2,29.57,NW,305,6.0,10.0,88,0.00,,,0.00,WUHU216DAVISVP2,2013-11-23 06:51:00,
2013-11-23 01:52:00,30.4,27.2,29.57,NW,312,5.0,10.0,88,0.00,,,0.00,WUHU216DAVISVP2,2013-11-23 06:52:00,
2013-11-23 01:54:00,30.3,27.1,29.56,NNW,330,4.0,10.0,88,0.00,,,0.00,WUHU216DAVISVP2,2013-11-23 06:54:00,
2013-11-23 01:56:00,30.3,27.2,29.57,NW,312,7.0,10.0,88,0.00,,,0.00,WUHU216DAVISVP2,2013-11-23 06:56:00,
2013-11-23 01:57:00,30.3,27.2,29.57,NW,318,6.0,10.0,88,0.00,,,0.00,WUHU216DAVISVP2,2013-11-23 06:57:00,
2013-11-23 01:59:00,30.2,27.1,29.56,NW,314,10.0,11.0,88,0.00,,,0.00,WUHU216DAVISVP2,2013-11-23 06:59:00,
2013-11-23 02:01:00,30.3,27.2,29.57,NW,323,8.0,12.0,88,0.00,,,0.00,WUHU216DAVISVP2,2013-11-23 07:01:00,
2013-11-23 02:02:00,30.3,27.2,29.57,NW,306,5.0,12.0,88,0.00,,,0.00,WUHU216DAVISVP2,2013-11-23 07:02:00,
2013-11-23 02:05:00,30.2,27.3,29.56,NW,314,6.0,12.0,89,0.00,,,0.00,WUHU216DAVISVP2,2013-11-23 07:05:00,
2013-11-23 02:06:00,30.2,27.3,29.56,NW,304,10.0,12.0,89,0.00,,,0.00,WUHU216DAVISVP2,2013-11-23 07:06:00,
2013-11-23 02:07:00,30.2,27.3,29.56,WNW,295,9.0,12.0,89,0.00,,,0.00,WUHU216DAVISVP2,2013-11-23 07:07:00,
2013-11-23 02:08:00,30.2,27.3,29.56,WNW,303,6.0,12.0,89,0.00,,,0.00,WUHU216DAVISVP2,2013-11-23 07:08:00,
2013-11-23 02:10:00,30.2,27.3,29.56,NW,317,5.0,12.0,89,0.00,,,0.00,WUHU216DAVISVP2,2013-11-23 07:10:00,
2013-11-23 02:11:00,30.2,27.3,29.56,NW,308,5.0,12.0,89,0.00,,,0.00,WUHU216DAVISVP2,2013-11-23 07:11:00,
2013-11-23 02:12:00,30.1,27.3,29.56,WNW,299,8.0,12.0,89,0.00,,,0.00,WUHU216DAVISVP2,2013-11-23 07:12:00,
2013-11-23 02:13:00,30.1,27.3,29.56,NW,312,4.0,12.0,89,0.00,,,0.00,WUHU216DAVISVP2,2013-11-23 07:13:00,
2013-11-23 02:14:00,30.1,27.3,29.56,NW,322,6.0,12.0,89,0.00,,,0.00,WUHU216DAVISVP2,2013-11-23 07:14:00,
2013-11-23 02:15:00,30.1,27.3,29.56,NW,322,7.0,12.0,89,0.00,,,0.00,WUHU216DAVISVP2,2013-11-23 07:15:00,
2013-11-23 02:16:00,30.1,27.3,29.56,NW,308,6.0,12.0,89,0.00,,,0.00,WUHU216DAVISVP2,2013-11-23 07:16:00,
2013-11-23 02:17:00,30.1,27.3,29.56,NW,324,5.0,12.0,89,0.00,,,0.00,WUHU216DAVISVP2,2013-11-23 07:17:00,
2013-11-23 02:18:00,30.1,27.3,29.56,NW,317,8.0,11.0,89,0.00,,,0.00,WUHU216DAVISVP2,2013-11-23 07:18:00,
2013-11-23 02:19:00,30.1,27.3,29.56,NW,308,9.0,11.0,89,0.00,,,0.00,WUHU216DAVISVP2,2013-11-23 07:19:00,
2013-11-23 02:20:00,30.1,27.3,29.56,WNW,303,7.0,11.0,89,0.00,,,0.00,WUHU216DAVISVP2,2013-11-23 07:20:00,
2013-11-23 02:22:00,30.1,27.3,29.56,NW,325,9.0,11.0,89,0.00,,,0.00,WUHU216DAVISVP2,2013-11-23 07:22:00,
2013-11-23 02:23:00,30.1,27.3,29.56,WNW,301,8.0,11.0,89,0.00,,,0.00,WUHU216DAVISVP2,2013-11-23 07:23:00,
2013-11-23 02:24:00,30.1,27.3,29.56,NW,312,8.0,10.0,89,0.00,,,0.00,WUHU216DAVISVP2,2013-11-23 07:24:00,
2013-11-23 02:25:00,30.1,27.3,29.56,NW,309,4.0,11.0,89,0.00,,,0.00,WUHU216DAVISVP2,2013-11-23 07:25:00,
2013-11-23 02:26:00,30.1,27.3,29.56,NW,309,8.0,11.0,89,0.00,,,0.00,WUHU216DAVISVP2,2013-11-23 07:26:00,
2013-11-23 02:27:00,30.1,27.3,29.56,NW,318,7.0,11.0,89,0.00,,,0.00,WUHU216DAVISVP2,2013-11-23 07:27:00,
2013-11-23 02:28:00,30.1,27.3,29.56,NW,305,5.0,11.0,89,0.00,,,0.00,WUHU216DAVISVP2,2013-11-23 07:28:00,
2013-11-23 02:29:00,30.1,27.3,29.56,NW,319,8.0,11.0,89,0.00,,,0.00,WUHU216DAVISVP2,2013-11-23 07:29:00,
2013-11-23 02:30:00,30.1,27.3,29.56,NW,310,8.0,11.0,89,0.00,,,0.00,WUHU216DAVISVP2,2013-11-23 07:30:00,
2013-11-23 02:32:00,30.1,27.3,29.56,NW,316,5.0,11.0,89,0.00,,,0.00,WUHU216DAVISVP2,2013-11-23 07:32:00,
2013-11-23 02:33:00,30.1,27.3,29.56,NW,312,8.0,11.0,89,0.00,,,0.00,WUHU216DAVISVP2,2013-11-23 07:33:00,
2013-11-23 02:35:00,30.1,27.3,29.56,NW,311,8.0,11.0,89,0.00,,,0.00,WUHU216DAVISVP2,2013-11-23 07:35:00,
2013-11-23 02:37:00,30.1,27.3,29.56,WNW,294,8.0,13.0,89,0.00,,,0.00,WUHU216DAVISVP2,2013-11-23 07:37:00,
2013-11-23 02:38:00,30.1,27.3,29.56,West,281,10.0,13.0,89,0.00,,,0.00,WUHU216DAVISVP2,2013-11-23 07:38:00,
2013-11-23 02:40:00,30.0,27.2,29.56,NNW,332,4.0,13.0,89,0.00,,,0.00,WUHU216DAVISVP2,2013-11-23 07:40:00,
2013-11-23 02:41:00,30.0,27.2,29.56,NW,305,7.0,13.0,89,0.00,,,0.00,WUHU216DAVISVP2,2013-11-23 07:41:00,
2013-11-23 02:43:00,30.0,27.2,29.56,NW,326,6.0,13.0,89,0.00,,,0.00,WUHU216DAVISVP2,2013-11-23 07:43:00,
2013-11-23 02:45:00,29.9,27.1,29.56,NW,312,6.0,13.0,89,0.00,,,0.00,WUHU216DAVISVP2,2013-11-23 07:45:00,
2013-11-23 02:46:00,29.9,27.1,29.56,NW,313,5.0,13.0,89,0.00,,,0.00,WUHU216DAVISVP2,2013-11-23 07:46:00,
2013-11-23 02:48:00,29.9,27.1,29.56,NW,312,6.0,13.0,89,0.00,,,0.00,WUHU216DAVISVP2,2013-11-23 07:48:00,
2013-11-23 02:50:00,29.8,27.0,29.56,NW,305,7.0,13.0,89,0.00,,,0.00,WUHU216DAVISVP2,2013-11-23 07:50:00,
2013-11-23 02:51:00,29.8,27.0,29.56,WNW,298,7.0,13.0,89,0.00,,,0.00,WUHU216DAVISVP2,2013-11-23 07:51:00,
2013-11-23 02:53:00,29.8,27.0,29.56,WNW,299,2.0,13.0,89,0.00,,,0.00,WUHU216DAVISVP2,2013-11-23 07:53:00,
2013-11-23 02:54:00,29.8,27.0,29.56,WNW,295,4.0,13.0,89,0.00,,,0.00,WUHU216DAVISVP2,2013-11-23 07:54:00,
2013-11-23 02:55:00,29.7,26.9,29.56,WNW,295,5.0,13.0,89,0.00,,,0.00,WUHU216DAVISVP2,2013-11-23 07:55:00,
2013-11-23 02:56:00,29.7,26.9,29.56,WNW,303,8.0,10.0,89,0.00,,,0.00,WUHU216DAVISVP2,2013-11-23 07:56:00,
2013-11-23 02:57:00,29.7,26.9,29.56,WNW,301,6.0,10.0,89,0.00,,,0.00,WUHU216DAVISVP2,2013-11-23 07:57:00,
2013-11-23 02:58:00,29.7,26.9,29.56,WNW,300,4.0,9.0,89,0.00,,,0.00,WUHU216DAVISVP2,2013-11-23 07:58:00,
2013-11-23 02:59:00,29.7,26.9,29.56,WNW,299,7.0,9.0,89,0.00,,,0.00,WUHU216DAVISVP2,2013-11-23 07:59:00,
2013-11-23 03:01:00,29.7,26.9,29.56,WNW,297,6.0,9.0,89,0.00,,,0.00,WUHU216DAVISVP2,2013-11-23 08:01:00,
2013-11-23 03:02:00,29.7,26.9,29.55,WNW,297,5.0,9.0,89,0.00,,,0.00,WUHU216DAVISVP2,2013-11-23 08:02:00,
2013-11-23 03:03:00,29.7,26.9,29.56,WNW,303,6.0,9.0,89,0.00,,,0.00,WUHU216DAVISVP2,2013-11-23 08:03:00,
2013-11-23 03:04:00,29.7,26.9,29.56,WNW,298,5.0,9.0,89,0.00,,,0.00,WUHU216DAVISVP2,2013-11-23 08:04:00,
2013-11-23 03:06:00,29.7,26.9,29.56,WNW,288,5.0,9.0,89,0.00,,,0.00,WUHU216DAVISVP2,2013-11-23 08:06:00,
2013-11-23 03:07:00,29.7,26.9,29.56,WNW,295,7.0,9.0,89,0.00,,,0.00,WUHU216DAVISVP2,2013-11-23 08:07:00,
2013-11-23 03:08:00,29.7,26.9,29.56,WNW,295,5.0,9.0,89,0.00,,,0.00,WUHU216DAVISVP2,2013-11-23 08:08:00,
2013-11-23 03:09:00,29.7,26.9,29.56,WNW,295,5.0,9.0,89,0.00,,,0.00,WUHU216DAVISVP2,2013-11-23 08:09:00,
2013-11-23 03:11:00,29.7,26.9,29.55,WNW,295,5.0,9.0,89,0.00,,,0.00,WUHU216DAVISVP2,2013-11-23 08:11:00,
2013-11-23 03:12:00,29.7,26.9,29.55,WNW,295,4.0,9.0,89,0.00,,,0.00,WUHU216DAVISVP2,2013-11-23 08:12:00,
2013-11-23 03:13:00,29.7,26.9,29.55,WNW,295,5.0,9.0,89,0.00,,,0.00,WUHU216DAVISVP2,2013-11-23 08:13:00,
2013-11-23 03:14:00,29.7,26.9,29.55,WNW,295,5.0,9.0,89,0.00,,,0.00,WUHU216DAVISVP2,2013-11-23 08:14:00,
2013-11-23 03:17:00,29.6,26.8,29.55,WNW,295,7.0,9.0,89,0.00,,,0.00,WUHU216DAVISVP2,2013-11-23 08:17:00,
2013-11-23 03:18:00,29.6,26.8,29.55,WNW,295,6.0,9.0,89,0.00,,,0.00,WUHU216DAVISVP2,2013-11-23 08:18:00,
2013-11-23 03:19:00,29.6,26.8,29.56,WNW,295,5.0,8.0,89,0.00,,,0.00,WUHU216DAVISVP2,2013-11-23 08:19:00,
2013-11-23 03:20:00,29.6,26.8,29.56,WNW,295,6.0,8.0,89,0.00,,,0.00,WUHU216DAVISVP2,2013-11-23 08:20:00,
2013-11-23 03:22:00,29.5,26.7,29.55,WNW,295,4.0,8.0,89,0.00,,,0.00,WUHU216DAVISVP2,2013-11-23 08:22:00,
2013-11-23 03:23:00,29.5,26.7,29.55,WNW,295,5.0,8.0,89,0.00,,,0.00,WUHU216DAVISVP2,2013-11-23 08:23:00,
2013-11-23 03:24:00,29.5,26.7,29.55,WNW,295,6.0,8.0,89,0.00,,,0.00,WUHU216DAVISVP2,2013-11-23 08:24:00,
2013-11-23 03:26:00,29.5,26.7,29.56,WNW,295,3.0,8.0,89,0.00,,,0.00,WUHU216DAVISVP2,2013-11-23 08:26:00,
2013-11-23 03:27:00,29.5,26.7,29.55,WNW,295,4.0,8.0,89,0.00,,,0.00,WUHU216DAVISVP2,2013-11-23 08:27:00,
2013-11-23 03:28:00,29.4,26.6,29.55,WNW,295,8.0,8.0,89,0.00,,,0.00,WUHU216DAVISVP2,2013-11-23 08:28:00,
2013-11-23 03:29:00,29.4,26.6,29.55,WNW,295,5.0,9.0,89,0.00,,,0.00,WUHU216DAVISVP2,2013-11-23 08:29:00,
2013-11-23 03:31:00,29.5,26.7,29.55,WNW,294,8.0,10.0,89,0.00,,,0.00,WUHU216DAVISVP2,2013-11-23 08:31:00,
2013-11-23 03:32:00,29.5,26.7,29.55,WNW,296,4.0,10.0,89,0.00,,,0.00,WUHU216DAVISVP2,2013-11-23 08:32:00,
2013-11-23 03:33:00,29.5,26.7,29.55,WNW,296,6.0,10.0,89,0.00,,,0.00,WUHU216DAVISVP2,2013-11-23 08:33:00,
2013-11-23 03:34:00,29.5,26.7,29.55,WNW,293,6.0,10.0,89,0.00,,,0.00,WUHU216DAVISVP2,2013-11-23 08:34:00,
2013-11-23 03:37:00,29.5,26.7,29.55,WNW,287,4.0,10.0,89,0.00,,,0.00,WUHU216DAVISVP2,2013-11-23 08:37:00,
2013-11-23 03:41:00,29.4,26.6,29.55,West,278,5.0,10.0,89,0.00,,,0.00,WUHU216DAVISVP2,2013-11-23 08:41:00,
2013-11-23 03:42:00,29.4,26.6,29.55,WNW,303,7.0,10.0,89,0.00,,,0.00,WUHU216DAVISVP2,2013-11-23 08:42:00,
2013-11-23 03:46:00,29.4,26.3,29.55,WNW,296,7.0,10.0,88,0.00,,,0.00,WUHU216DAVISVP2,2013-11-23 08:46:00,
2013-11-23 03:47:00,29.4,26.3,29.55,NW,304,8.0,10.0,88,0.00,,,0.00,WUHU216DAVISVP2,2013-11-23 08:47:00,
2013-11-23 03:51:00,29.4,26.3,29.55,WNW,303,8.0,10.0,88,0.00,,,0.00,WUHU216DAVISVP2,2013-11-23 08:51:00,
2013-11-23 03:52:00,29.4,26.3,29.55,WNW,283,11.0,11.0,88,0.00,,,0.00,WUHU216DAVISVP2,2013-11-23 08:52:00,
2013-11-23 03:53:00,29.4,26.3,29.55,NW,311,5.0,11.0,88,0.00,,,0.00,WUHU216DAVISVP2,2013-11-23 08:53:00,
2013-11-23 03:56:00,29.4,26.2,29.55,WNW,299,7.0,13.0,88,0.00,,,0.00,WUHU216DAVISVP2,2013-11-23 08:56:00,
2013-11-23 03:57:00,29.4,26.2,29.55,NW,309,7.0,13.0,88,0.00,,,0.00,WUHU216DAVISVP2,2013-11-23 08:57:00,
2013-11-23 03:59:00,29.4,26.0,29.54,NW,310,7.0,13.0,87,0.00,,,0.00,WUHU216DAVISVP2,2013-11-23 08:59:00,
2013-11-23 04:01:00,29.4,26.2,29.54,WNW,301,7.0,13.0,88,0.00,,,0.00,WUHU216DAVISVP2,2013-11-23 09:01:00,
2013-11-23 04:02:00,29.4,26.2,29.54,WNW,301,8.0,13.0,88,0.00,,,0.00,WUHU216DAVISVP2,2013-11-23 09:02:00,
2013-11-23 04:04:00,29.4,26.0,29.54,NW,312,6.0,14.0,87,0.00,,,0.00,WUHU216DAVISVP2,2013-11-23 09:04:00,
2013-11-23 04:06:00,29.4,26.2,29.54,WNW,291,7.0,14.0,88,0.00,,,0.00,WUHU216DAVISVP2,2013-11-23 09:06:00,
2013-11-23 04:07:00,29.4,26.2,29.54,NW,306,7.0,14.0,88,0.00,,,0.00,WUHU216DAVISVP2,2013-11-23 09:07:00,
2013-11-23 04:08:00,29.4,26.2,29.54,WNW,292,7.0,14.0,88,0.00,,,0.00,WUHU216DAVISVP2,2013-11-23 09:08:00,
2013-11-23 04:09:00,29.4,26.2,29.54,WNW,291,9.0,14.0,88,0.00,,,0.00,WUHU216DAVISVP2,2013-11-23 09:09:00,
2013-11-23 04:11:00,29.4,26.2,29.54,WNW,292,6.0,14.0,88,0.00,,,0.00,WUHU216DAVISVP2,2013-11-23 09:11:00,
2013-11-23 04:12:00,29.4,26.2,29.54,WNW,301,7.0,14.0,88,0.00,,,0.00,WUHU216DAVISVP2,2013-11-23 09:12:00,
2013-11-23 04:13:00,29.4,26.2,29.54,NW,314,7.0,14.0,88,0.00,,,0.00,WUHU216DAVISVP2,2013-11-23 09:13:00,
2013-11-23 04:15:00,29.4,26.2,29.54,WNW,300,5.0,14.0,88,0.00,,,0.00,WUHU216DAVISVP2,2013-11-23 09:15:00,
2013-11-23 04:16:00,29.3,26.1,29.54,WNW,285,7.0,14.0,88,0.00,,,0.00,WUHU216DAVISVP2,2013-11-23 09:16:00,
2013-11-23 04:17:00,29.3,26.1,29.54,WNW,299,5.0,14.0,88,0.00,,,0.00,WUHU216DAVISVP2,2013-11-23 09:17:00,
2013-11-23 04:18:00,29.4,26.2,29.54,WNW,303,9.0,14.0,88,0.00,,,0.00,WUHU216DAVISVP2,2013-11-23 09:18:00,
2013-11-23 04:19:00,29.3,26.1,29.54,NW,305,6.0,14.0,88,0.00,,,0.00,WUHU216DAVISVP2,2013-11-23 09:19:00,
2013-11-23 04:20:00,29.3,26.1,29.54,WNW,293,8.0,14.0,88,0.00,,,0.00,WUHU216DAVISVP2,2013-11-23 09:20:00,
2013-11-23 04:21:00,29.3,26.1,29.54,NW,308,5.0,14.0,88,0.00,,,0.00,WUHU216DAVISVP2,2013-11-23 09:21:00,
2013-11-23 04:22:00,29.3,26.1,29.54,NW,306,6.0,12.0,88,0.00,,,0.00,WUHU216DAVISVP2,2013-11-23 09:22:00,
2013-11-23 04:23:00,29.3,26.1,29.54,WNW,293,6.0,12.0,88,0.00,,,0.00,WUHU216DAVISVP2,2013-11-23 09:23:00,
2013-11-23 04:24:00,29.3,26.1,29.54,NW,307,5.0,15.0,88,0.00,,,0.00,WUHU216DAVISVP2,2013-11-23 09:24:00,
2013-11-23 04:25:00,29.3,25.9,29.54,WNW,294,7.0,15.0,87,0.00,,,0.00,WUHU216DAVISVP2,2013-11-23 09:25:00,
2013-11-23 04:26:00,29.2,25.8,29.54,WNW,299,7.0,15.0,87,0.00,,,0.00,WUHU216DAVISVP2,2013-11-23 09:26:00,
2013-11-23 04:28:00,29.3,25.9,29.54,NNW,339,6.0,15.0,87,0.00,,,0.00,WUHU216DAVISVP2,2013-11-23 09:28:00,
2013-11-23 04:29:00,29.3,25.9,29.54,NW,308,9.0,15.0,87,0.00,,,0.00,WUHU216DAVISVP2,2013-11-23 09:29:00,
2013-11-23 04:30:00,29.3,25.9,29.54,WNW,295,7.0,15.0,87,0.00,,,0.00,WUHU216DAVISVP2,2013-11-23 09:30:00,
2013-11-23 04:31:00,29.3,25.9,29.54,WNW,294,7.0,15.0,87,0.00,,,0.00,WUHU216DAVISVP2,2013-11-23 09:31:00,
2013-11-23 04:33:00,29.3,25.9,29.53,WNW,297,9.0,15.0,87,0.00,,,0.00,WUHU216DAVISVP2,2013-11-23 09:33:00,
2013-11-23 04:34:00,29.3,25.9,29.53,WNW,299,10.0,15.0,87,0.00,,,0.00,WUHU216DAVISVP2,2013-11-23 09:34:00,
2013-11-23 04:36:00,29.2,25.5,29.54,NW,305,6.0,15.0,86,0.00,,,0.00,WUHU216DAVISVP2,2013-11-23 09:36:00,
2013-11-23 04:38:00,29.2,25.5,29.54,WNW,287,11.0,15.0,86,0.00,,,0.00,WUHU216DAVISVP2,2013-11-23 09:38:00,
2013-11-23 04:39:00,29.2,25.5,29.54,WNW,289,6.0,15.0,86,0.00,,,0.00,WUHU216DAVISVP2,2013-11-23 09:39:00,
2013-11-23 04:41:00,29.2,25.5,29.54,NW,318,7.0,15.0,86,0.00,,,0.00,WUHU216DAVISVP2,2013-11-23 09:41:00,
2013-11-23 04:43:00,29.1,25.4,29.54,WNW,288,13.0,13.0,86,0.00,,,0.00,WUHU216DAVISVP2,2013-11-23 09:43:00,
2013-11-23 04:44:00,29.1,25.4,29.54,WNW,295,8.0,13.0,86,0.00,,,0.00,WUHU216DAVISVP2,2013-11-23 09:44:00,
2013-11-23 04:46:00,29.1,25.4,29.54,WNW,283,8.0,13.0,86,0.00,,,0.00,WUHU216DAVISVP2,2013-11-23 09:46:00,
2013-11-23 04:47:00,29.0,25.3,29.53,WNW,303,7.0,13.0,86,0.00,,,0.00,WUHU216DAVISVP2,2013-11-23 09:47:00,
2013-11-23 04:49:00,29.0,25.3,29.53,WNW,293,6.0,13.0,86,0.00,,,0.00,WUHU216DAVISVP2,2013-11-23 09:49:00,
2013-11-23 04:50:00,29.0,25.3,29.53,NW,308,7.0,13.0,86,0.00,,,0.00,WUHU216DAVISVP2,2013-11-23 09:50:00,
2013-11-23 04:51:00,29.0,25.3,29.53,WNW,300,9.0,13.0,86,0.00,,,0.00,WUHU216DAVISVP2,2013-11-23 09:51:00,
2013-11-23 04:52:00,29.0,25.3,29.53,NW,305,11.0,13.0,86,0.00,,,0.00,WUHU216DAVISVP2,2013-11-23 09:52:00,
2013-11-23 04:54:00,29.0,25.0,29.54,NW,305,11.0,13.0,85,0.00,,,0.00,WUHU216DAVISVP2,2013-11-23 09:54:00,
2013-11-23 04:55:00,29.0,25.0,29.54,NW,322,8.0,13.0,85,0.00,,,0.00,WUHU216DAVISVP2,2013-11-23 09:55:00,
2013-11-23 04:57:00,28.9,24.9,29.54,WNW,299,7.0,13.0,85,0.00,,,0.00,WUHU216DAVISVP2,2013-11-23 09:57:00,
2013-11-23 04:59:00,28.9,24.9,29.53,NW,307,7.0,13.0,85,0.00,,,0.00,WUHU216DAVISVP2,2013-11-23 09:59:00,
2013-11-23 05:00:00,28.9,24.9,29.53,WNW,293,5.0,13.0,85,0.00,,,0.00,WUHU216DAVISVP2,2013-11-23 10:00:00,
2013-11-23 05:02:00,28.8,24.8,29.53,WNW,293,7.0,13.0,85,0.00,,,0.00,WUHU216DAVISVP2,2013-11-23 10:02:00,
2013-11-23 05:03:00,28.8,24.8,29.53,NW,310,5.0,13.0,85,0.00,,,0.00,WUHU216DAVISVP2,2013-11-23 10:03:00,
2013-11-23 05:04:00,28.8,24.8,29.53,NW,306,7.0,13.0,85,0.00,,,0.00,WUHU216DAVISVP2,2013-11-23 10:04:00,
2013-11-23 05:05:00,28.8,24.8,29.53,NW,317,8.0,13.0,85,0.00,,,0.00,WUHU216DAVISVP2,2013-11-23 10:05:00,
2013-11-23 05:07:00,28.7,24.5,29.53,NW,305,7.0,13.0,84,0.00,,,0.00,WUHU216DAVISVP2,2013-11-23 10:07:00,
2013-11-23 05:08:00,28.7,24.7,29.53,WNW,292,7.0,13.0,85,0.00,,,0.00,WUHU216DAVISVP2,2013-11-23 10:08:00,
2013-11-23 05:10:00,28.7,24.5,29.53,WNW,301,11.0,13.0,84,0.00,,,0.00,WUHU216DAVISVP2,2013-11-23 10:10:00,
2013-11-23 05:11:00,28.7,24.5,29.53,NW,305,8.0,12.0,84,0.00,,,0.00,WUHU216DAVISVP2,2013-11-23 10:11:00,
2013-11-23 05:12:00,28.7,24.5,29.53,WNW,302,8.0,12.0,84,0.00,,,0.00,WUHU216DAVISVP2,2013-11-23 10:12:00,
2013-11-23 05:13:00,28.7,24.5,29.53,WNW,300,7.0,12.0,84,0.00,,,0.00,WUHU216DAVISVP2,2013-11-23 10:13:00,
2013-11-23 05:15:00,28.6,24.4,29.53,NW,308,7.0,12.0,84,0.00,,,0.00,WUHU216DAVISVP2,2013-11-23 10:15:00,
2013-11-23 05:16:00,28.6,24.4,29.53,NW,305,5.0,12.0,84,0.00,,,0.00,WUHU216DAVISVP2,2013-11-23 10:16:00,
2013-11-23 05:17:00,28.6,24.4,29.53,WNW,302,6.0,12.0,84,0.00,,,0.00,WUHU216DAVISVP2,2013-11-23 10:17:00,
2013-11-23 05:18:00,28.5,24.3,29.53,NW,305,7.0,12.0,84,0.00,,,0.00,WUHU216DAVISVP2,2013-11-23 10:18:00,
2013-11-23 05:19:00,28.5,24.3,29.53,NW,305,6.0,12.0,84,0.00,,,0.00,WUHU216DAVISVP2,2013-11-23 10:19:00,
2013-11-23 05:20:00,28.4,24.2,29.53,NW,305,2.0,12.0,84,0.00,,,0.00,WUHU216DAVISVP2,2013-11-23 10:20:00,
2013-11-23 05:21:00,28.4,24.2,29.53,NW,307,7.0,12.0,84,0.00,,,0.00,WUHU216DAVISVP2,2013-11-23 10:21:00,
2013-11-23 05:22:00,28.4,24.2,29.53,NW,307,9.0,12.0,84,0.00,,,0.00,WUHU216DAVISVP2,2013-11-23 10:22:00,
2013-11-23 05:23:00,28.4,24.2,29.53,NW,307,8.0,12.0,84,0.00,,,0.00,WUHU216DAVISVP2,2013-11-23 10:23:00,
2013-11-23 05:24:00,28.3,24.1,29.53,NW,312,8.0,12.0,84,0.00,,,0.00,WUHU216DAVISVP2,2013-11-23 10:24:00,
2013-11-23 05:25:00,28.3,24.1,29.53,WNW,303,6.0,12.0,84,0.00,,,0.00,WUHU216DAVISVP2,2013-11-23 10:25:00,
2013-11-23 05:26:00,28.3,24.1,29.53,NW,314,6.0,12.0,84,0.00,,,0.00,WUHU216DAVISVP2,2013-11-23 10:26:00,
2013-11-23 05:27:00,28.3,24.1,29.53,NW,314,7.0,12.0,84,0.00,,,0.00,WUHU216DAVISVP2,2013-11-23 10:27:00,
2013-11-23 05:28:00,28.2,23.7,29.53,NW,306,7.0,12.0,83,0.00,,,0.00,WUHU216DAVISVP2,2013-11-23 10:28:00,
2013-11-23 05:30:00,28.2,23.7,29.53,NNW,333,9.0,10.0,83,0.00,,,0.00,WUHU216DAVISVP2,2013-11-23 10:30:00,
2013-11-23 05:31:00,28.1,23.6,29.53,WNW,300,6.0,10.0,83,0.00,,,0.00,WUHU216DAVISVP2,2013-11-23 10:31:00,
2013-11-23 05:32:00,28.1,23.6,29.53,WNW,297,8.0,10.0,83,0.00,,,0.00,WUHU216DAVISVP2,2013-11-23 10:32:00,
2013-11-23 05:34:00,28.1,23.6,29.53,NW,323,7.0,12.0,83,0.00,,,0.00,WUHU216DAVISVP2,2013-11-23 10:34:00,
2013-11-23 05:35:00,28.1,23.3,29.54,NW,321,10.0,12.0,82,0.00,,,0.00,WUHU216DAVISVP2,2013-11-23 10:35:00,
2013-11-23 05:36:00,28.1,23.3,29.54,NW,325,7.0,12.0,82,0.00,,,0.00,WUHU216DAVISVP2,2013-11-23 10:36:00,
2013-11-23 05:37:00,28.0,23.2,29.54,NW,311,5.0,12.0,82,0.00,,,0.00,WUHU216DAVISVP2,2013-11-23 10:37:00,
2013-11-23 05:38:00,28.0,23.2,29.54,NW,309,9.0,12.0,82,0.00,,,0.00,WUHU216DAVISVP2,2013-11-23 10:38:00,
2013-11-23 05:39:00,28.0,23.2,29.54,NW,312,10.0,12.0,82,0.00,,,0.00,WUHU216DAVISVP2,2013-11-23 10:39:00,
2013-11-23 05:40:00,28.0,23.2,29.54,WNW,299,5.0,12.0,82,0.00,,,0.00,WUHU216DAVISVP2,2013-11-23 10:40:00,
2013-11-23 05:41:00,28.0,23.2,29.54,NW,311,7.0,12.0,82,0.00,,,0.00,WUHU216DAVISVP2,2013-11-23 10:41:00,
2013-11-23 05:42:00,28.0,22.9,29.54,WNW,298,9.0,13.0,81,0.00,,,0.00,WUHU216DAVISVP2,2013-11-23 10:42:00,
2013-11-23 05:43:00,28.0,22.9,29.54,NW,305,9.0,13.0,81,0.00,,,0.00,WUHU216DAVISVP2,2013-11-23 10:43:00,
2013-11-23 05:44:00,28.0,22.9,29.54,NNW,331,9.0,13.0,81,0.00,,,0.00,WUHU216DAVISVP2,2013-11-23 10:44:00,
2013-11-23 05:46:00,27.9,22.8,29.54,WNW,299,11.0,13.0,81,0.00,,,0.00,WUHU216DAVISVP2,2013-11-23 10:46:00,
2013-11-23 05:47:00,27.9,22.8,29.54,NW,314,6.0,13.0,81,0.00,,,0.00,WUHU216DAVISVP2,2013-11-23 10:47:00,
2013-11-23 05:48:00,27.9,22.8,29.54,WNW,298,10.0,13.0,81,0.00,,,0.00,WUHU216DAVISVP2,2013-11-23 10:48:00,
2013-11-23 05:49:00,27.8,22.7,29.54,NW,318,7.0,13.0,81,0.00,,,0.00,WUHU216DAVISVP2,2013-11-23 10:49:00,
2013-11-23 05:51:00,27.8,22.7,29.54,WNW,295,7.0,13.0,81,0.00,,,0.00,WUHU216DAVISVP2,2013-11-23 10:51:00,
2013-11-23 05:52:00,27.8,22.7,29.54,NW,312,6.0,13.0,81,0.00,,,0.00,WUHU216DAVISVP2,2013-11-23 10:52:00,
2013-11-23 05:53:00,27.7,22.6,29.54,WNW,293,13.0,14.0,81,0.00,,,0.00,WUHU216DAVISVP2,2013-11-23 10:53:00,
2013-11-23 05:54:00,27.7,22.6,29.54,NW,304,8.0,14.0,81,0.00,,,0.00,WUHU216DAVISVP2,2013-11-23 10:54:00,
2013-11-23 05:56:00,27.7,22.6,29.54,WNW,302,6.0,14.0,81,0.00,,,0.00,WUHU216DAVISVP2,2013-11-23 10:56:00,
2013-11-23 05:57:00,27.6,22.5,29.54,NW,310,10.0,14.0,81,0.00,,,0.00,WUHU216DAVISVP2,2013-11-23 10:57:00,
2013-11-23 05:58:00,27.6,22.5,29.54,WNW,297,6.0,14.0,81,0.00,,,0.00,WUHU216DAVISVP2,2013-11-23 10:58:00,
2013-11-23 05:59:00,27.6,22.5,29.54,WNW,297,6.0,14.0,81,0.00,,,0.00,WUHU216DAVISVP2,2013-11-23 10:59:00,
2013-11-23 06:01:00,27.5,22.4,29.54,NW,322,8.0,14.0,81,0.00,,,0.00,WUHU216DAVISVP2,2013-11-23 11:01:00,
2013-11-23 06:02:00,27.5,22.4,29.54,NW,316,6.0,14.0,81,0.00,,,0.00,WUHU216DAVISVP2,2013-11-23 11:02:00,
2013-11-23 06:04:00,27.4,22.3,29.54,NW,308,6.0,14.0,81,0.00,,,0.00,WUHU216DAVISVP2,2013-11-23 11:04:00,
2013-11-23 06:06:00,27.4,22.3,29.54,NW,310,12.0,14.0,81,0.00,,,0.00,WUHU216DAVISVP2,2013-11-23 11:06:00,
2013-11-23 06:07:00,27.4,22.3,29.54,NW,312,7.0,14.0,81,0.00,,,0.00,WUHU216DAVISVP2,2013-11-23 11:07:00,
2013-11-23 06:09:00,27.4,22.3,29.54,NW,305,6.0,14.0,81,0.00,,,0.00,WUHU216DAVISVP2,2013-11-23 11:09:00,
2013-11-23 06:10:00,27.3,22.2,29.54,NW,308,8.0,14.0,81,0.00,,,0.00,WUHU216DAVISVP2,2013-11-23 11:10:00,
2013-11-23 06:12:00,27.3,21.9,29.54,NW,320,9.0,14.0,80,0.00,,,0.00,WUHU216DAVISVP2,2013-11-23 11:12:00,
2013-11-23 06:14:00,27.2,21.9,29.54,NW,314,9.0,12.0,80,0.00,,,0.00,WUHU216DAVISVP2,2013-11-23 11:14:00,
2013-11-23 06:15:00,27.2,22.1,29.54,WNW,289,7.0,12.0,81,0.00,,,0.00,WUHU216DAVISVP2,2013-11-23 11:15:00,
2013-11-23 06:17:00,27.1,22.0,29.54,WNW,291,10.0,12.0,81,0.00,,,0.00,WUHU216DAVISVP2,2013-11-23 11:17:00,
2013-11-23 06:19:00,27.1,22.0,29.53,WNW,299,5.0,12.0,81,0.00,,,0.00,WUHU216DAVISVP2,2013-11-23 11:19:00,
2013-11-23 06:20:00,27.0,21.9,29.53,NW,312,7.0,12.0,81,0.00,,,0.00,WUHU216DAVISVP2,2013-11-23 11:20:00,
2013-11-23 06:22:00,27.0,21.9,29.53,WNW,291,9.0,12.0,81,0.00,,,0.00,WUHU216DAVISVP2,2013-11-23 11:22:00,
2013-11-23 06:23:00,27.0,21.9,29.53,WNW,301,7.0,12.0,81,0.00,,,0.00,WUHU216DAVISVP2,2013-11-23 11:23:00,
2013-11-23 06:24:00,27.0,21.9,29.53,WNW,298,7.0,12.0,81,0.00,,,0.00,WUHU216DAVISVP2,2013-11-23 11:24:00,
2013-11-23 06:25:00,27.0,21.9,29.53,WNW,303,9.0,12.0,81,0.00,,,0.00,WUHU216DAVISVP2,2013-11-23 11:25:00,
2013-11-23 06:28:00,26.9,21.8,29.53,WNW,298,7.0,12.0,81,0.00,,,0.00,WUHU216DAVISVP2,2013-11-23 11:28:00,
2013-11-23 06:29:00,26.8,21.7,29.53,WNW,291,5.0,12.0,81,0.00,,,0.00,WUHU216DAVISVP2,2013-11-23 11:29:00,
2013-11-23 06:30:00,26.8,21.7,29.53,WNW,285,8.0,11.0,81,0.00,,,0.00,WUHU216DAVISVP2,2013-11-23 11:30:00,
2013-11-23 06:31:00,26.8,21.7,29.53,WNW,297,7.0,11.0,81,0.00,,,0.00,WUHU216DAVISVP2,2013-11-23 11:31:00,
2013-11-23 06:33:00,26.7,21.7,29.53,WNW,295,7.0,11.0,81,0.00,,,0.00,WUHU216DAVISVP2,2013-11-23 11:33:00,
2013-11-23 06:34:00,26.7,21.7,29.53,WNW,303,9.0,12.0,81,0.00,,,0.00,WUHU216DAVISVP2,2013-11-23 11:34:00,
2013-11-23 06:36:00,26.7,21.7,29.53,WNW,298,10.0,12.0,81,0.00,,,0.00,WUHU216DAVISVP2,2013-11-23 11:36:00,
2013-11-23 06:37:00,26.7,21.7,29.53,WNW,294,6.0,12.0,81,0.00,,,0.00,WUHU216DAVISVP2,2013-11-23 11:37:00,
2013-11-23 06:38:00,26.6,21.6,29.53,WNW,303,8.0,12.0,81,0.00,,,0.00,WUHU216DAVISVP2,2013-11-23 11:38:00,
2013-11-23 06:39:00,26.6,21.6,29.53,WNW,297,6.0,12.0,81,0.00,,,0.00,WUHU216DAVISVP2,2013-11-23 11:39:00,
2013-11-23 06:41:00,26.6,21.8,29.53,WNW,291,7.0,12.0,82,0.00,,,0.00,WUHU216DAVISVP2,2013-11-23 11:41:00,
2013-11-23 06:42:00,26.5,21.7,29.53,WNW,295,9.0,12.0,82,0.00,,,0.00,WUHU216DAVISVP2,2013-11-23 11:42:00,
2013-11-23 06:43:00,26.5,21.7,29.53,WNW,287,7.0,12.0,82,0.00,,,0.00,WUHU216DAVISVP2,2013-11-23 11:43:00,
2013-11-23 06:44:00,26.5,21.7,29.53,NW,308,5.0,12.0,82,0.00,,,0.00,WUHU216DAVISVP2,2013-11-23 11:44:00,
2013-11-23 06:46:00,26.5,21.7,29.53,WNW,301,7.0,12.0,82,0.00,,,0.00,WUHU216DAVISVP2,2013-11-23 11:46:00,
2013-11-23 06:47:00,26.5,21.7,29.53,WNW,299,6.0,12.0,82,0.00,,,0.00,WUHU216DAVISVP2,2013-11-23 11:47:00,
2013-11-23 06:48:00,26.5,21.7,29.53,WNW,295,6.0,12.0,82,0.00,,,0.00,WUHU216DAVISVP2,2013-11-23 11:48:00,
2013-11-23 06:49:00,26.5,21.7,29.53,WNW,301,6.0,12.0,82,0.00,,,0.00,WUHU216DAVISVP2,2013-11-23 11:49:00,
2013-11-23 06:51:00,26.4,21.6,29.53,WNW,294,9.0,12.0,82,0.00,,,0.00,WUHU216DAVISVP2,2013-11-23 11:51:00,
2013-11-23 06:52:00,26.5,21.7,29.53,West,281,7.0,12.0,82,0.00,,,0.00,WUHU216DAVISVP2,2013-11-23 11:52:00,
2013-11-23 06:53:00,26.4,21.6,29.53,WNW,293,10.0,11.0,82,0.00,,,0.00,WUHU216DAVISVP2,2013-11-23 11:53:00,
2013-11-23 06:54:00,26.5,21.7,29.53,WNW,297,6.0,11.0,82,0.00,,,0.00,WUHU216DAVISVP2,2013-11-23 11:54:00,
2013-11-23 06:56:00,26.4,21.6,29.53,NW,314,8.0,11.0,82,0.00,,,0.00,WUHU216DAVISVP2,2013-11-23 11:56:00,
2013-11-23 06:57:00,26.4,21.6,29.53,WNW,300,5.0,11.0,82,0.00,,,0.00,WUHU216DAVISVP2,2013-11-23 11:57:00,
2013-11-23 06:58:00,26.4,21.6,29.53,WNW,300,5.0,11.0,82,0.00,,,0.00,WUHU216DAVISVP2,2013-11-23 11:58:00,
2013-11-23 06:59:00,26.3,21.5,29.53,NW,305,8.0,11.0,82,0.00,,,0.00,WUHU216DAVISVP2,2013-11-23 11:59:00,
2013-11-23 07:00:00,26.3,21.5,29.53,West,280,7.0,11.0,82,0.00,,,0.00,WUHU216DAVISVP2,2013-11-23 12:00:00,
2013-11-23 07:02:00,26.3,21.5,29.53,WNW,299,5.0,10.0,82,0.00,,,0.00,WUHU216DAVISVP2,2013-11-23 12:02:00,
2013-11-23 07:03:00,26.3,21.8,29.53,WNW,289,7.0,10.0,83,0.00,,,0.00,WUHU216DAVISVP2,2013-11-23 12:03:00,
2013-11-23 07:05:00,26.2,21.7,29.53,WNW,299,6.0,10.0,83,0.00,,,0.00,WUHU216DAVISVP2,2013-11-23 12:05:00,
2013-11-23 07:07:00,26.2,21.7,29.53,WNW,303,7.0,10.0,83,0.00,,,0.00,WUHU216DAVISVP2,2013-11-23 12:07:00,
2013-11-23 07:08:00,26.2,21.7,29.53,WNW,300,6.0,11.0,83,0.00,,,0.00,WUHU216DAVISVP2,2013-11-23 12:08:00,
2013-11-23 07:09:00,26.2,21.7,29.53,WNW,291,5.0,11.0,83,0.00,,,0.00,WUHU216DAVISVP2,2013-11-23 12:09:00,
2013-11-23 07:10:00,26.2,21.7,29.53,WNW,302,6.0,11.0,83,0.00,,,0.00,WUHU216DAVISVP2,2013-11-23 12:10:00,
2013-11-23 07:11:00,26.1,21.6,29.53,NW,304,9.0,11.0,83,0.00,,,0.00,WUHU216DAVISVP2,2013-11-23 12:11:00,
2013-11-23 07:12:00,26.1,21.6,29.53,WNW,295,7.0,11.0,83,0.00,,,0.00,WUHU216DAVISVP2,2013-11-23 12:12:00,
2013-11-23 07:13:00,26.1,21.6,29.53,NW,309,7.0,12.0,83,0.00,,,0.00,WUHU216DAVISVP2,2013-11-23 12:13:00,
2013-11-23 07:14:00,26.1,21.6,29.53,WNW,301,10.0,12.0,83,0.00,,,0.00,WUHU216DAVISVP2,2013-11-23 12:14:00,
2013-11-23 07:15:00,26.1,21.6,29.53,WNW,298,6.0,12.0,83,0.00,,,0.00,WUHU216DAVISVP2,2013-11-23 12:15:00,
2013-11-23 07:16:00,26.1,21.6,29.53,NW,310,8.0,12.0,83,0.00,,,0.00,WUHU216DAVISVP2,2013-11-23 12:16:00,
2013-11-23 07:17:00,26.0,21.5,29.53,WNW,288,9.0,12.0,83,0.00,,,0.00,WUHU216DAVISVP2,2013-11-23 12:17:00,
2013-11-23 07:18:00,26.0,21.5,29.53,NW,304,8.0,12.0,83,0.00,,,0.00,WUHU216DAVISVP2,2013-11-23 12:18:00,
2013-11-23 07:19:00,26.0,21.5,29.53,WNW,301,8.0,12.0,83,0.00,,,0.00,WUHU216DAVISVP2,2013-11-23 12:19:00,
2013-11-23 07:20:00,25.9,21.4,29.53,NW,317,7.0,12.0,83,0.00,,,0.00,WUHU216DAVISVP2,2013-11-23 12:20:00,
2013-11-23 07:21:00,26.0,21.5,29.53,WNW,286,7.0,12.0,83,0.00,,,0.00,WUHU216DAVISVP2,2013-11-23 12:21:00,
2013-11-23 07:22:00,25.9,21.4,29.53,WNW,301,8.0,12.0,83,0.00,,,0.00,WUHU216DAVISVP2,2013-11-23 12:22:00,
2013-11-23 07:24:00,25.9,21.4,29.53,WNW,296,6.0,12.0,83,0.00,,,0.00,WUHU216DAVISVP2,2013-11-23 12:24:00,
2013-11-23 07:25:00,25.9,21.4,29.53,WNW,283,10.0,12.0,83,0.00,,,0.00,WUHU216DAVISVP2,2013-11-23 12:25:00,
2013-11-23 07:26:00,25.9,21.4,29.53,NW,324,7.0,12.0,83,0.00,,,0.00,WUHU216DAVISVP2,2013-11-23 12:26:00,
2013-11-23 07:27:00,25.9,21.4,29.53,NW,304,7.0,12.0,83,0.00,,,0.00,WUHU216DAVISVP2,2013-11-23 12:27:00,
2013-11-23 07:29:00,25.8,21.3,29.53,WNW,291,9.0,12.0,83,0.00,,,0.00,WUHU216DAVISVP2,2013-11-23 12:29:00,
2013-11-23 07:30:00,25.9,21.4,29.53,WNW,290,8.0,12.0,83,0.00,,,0.00,WUHU216DAVISVP2,2013-11-23 12:30:00,
2013-11-23 07:31:00,25.8,21.3,29.54,WNW,297,7.0,12.0,83,0.00,,,0.00,WUHU216DAVISVP2,2013-11-23 12:31:00,
2013-11-23 07:33:00,25.8,21.3,29.54,NW,308,6.0,12.0,83,0.00,,,0.00,WUHU216DAVISVP2,2013-11-23 12:33:00,
2013-11-23 07:34:00,25.8,21.3,29.54,WNW,303,11.0,14.0,83,0.00,,,0.00,WUHU216DAVISVP2,2013-11-23 12:34:00,
2013-11-23 07:35:00,25.8,21.3,29.54,WNW,293,9.0,14.0,83,0.00,,,0.00,WUHU216DAVISVP2,2013-11-23 12:35:00,
2013-11-23 07:38:00,25.8,21.3,29.54,WNW,298,12.0,14.0,83,0.00,,,0.00,WUHU216DAVISVP2,2013-11-23 12:38:00,
2013-11-23 07:39:00,25.8,21.3,29.54,NW,305,10.0,15.0,83,0.00,,,0.00,WUHU216DAVISVP2,2013-11-23 12:39:00,
2013-11-23 07:40:00,25.8,21.3,29.54,WNW,292,7.0,15.0,83,0.00,,,0.00,WUHU216DAVISVP2,2013-11-23 12:40:00,
2013-11-23 07:43:00,25.7,21.2,29.53,WNW,297,10.0,15.0,83,0.00,,,0.00,WUHU216DAVISVP2,2013-11-23 12:43:00,
2013-11-23 07:44:00,25.7,21.2,29.54,WNW,301,6.0,15.0,83,0.00,,,0.00,WUHU216DAVISVP2,2013-11-23 12:44:00,
2013-11-23 07:45:00,25.7,21.2,29.54,WNW,298,10.0,15.0,83,0.00,,,0.00,WUHU216DAVISVP2,2013-11-23 12:45:00,
2013-11-23 07:46:00,25.7,21.2,29.54,WNW,299,8.0,15.0,83,0.00,,,0.00,WUHU216DAVISVP2,2013-11-23 12:46:00,
2013-11-23 07:48:00,25.7,21.2,29.53,WNW,293,10.0,15.0,83,0.00,,,0.00,WUHU216DAVISVP2,2013-11-23 12:48:00,
2013-11-23 07:49:00,25.6,21.1,29.53,WNW,298,8.0,15.0,83,0.00,,,0.00,WUHU216DAVISVP2,2013-11-23 12:49:00,
2013-11-23 07:50:00,25.6,21.1,29.53,West,280,10.0,15.0,83,0.00,,,0.00,WUHU216DAVISVP2,2013-11-23 12:50:00,
2013-11-23 07:51:00,25.6,21.1,29.53,NW,314,9.0,15.0,83,0.00,,,0.00,WUHU216DAVISVP2,2013-11-23 12:51:00,
2013-11-23 07:53:00,25.6,21.1,29.53,WNW,283,6.0,15.0,83,0.00,,,0.00,WUHU216DAVISVP2,2013-11-23 12:53:00,
2013-11-23 07:54:00,25.6,21.1,29.53,WNW,291,7.0,15.0,83,0.00,,,0.00,WUHU216DAVISVP2,2013-11-23 12:54:00,
2013-11-23 07:55:00,25.6,21.1,29.53,WNW,289,8.0,15.0,83,0.00,,,0.00,WUHU216DAVISVP2,2013-11-23 12:55:00,
2013-11-23 07:56:00,25.5,21.0,29.53,WNW,299,11.0,15.0,83,0.00,,,0.00,WUHU216DAVISVP2,2013-11-23 12:56:00,
2013-11-23 07:58:00,25.6,21.1,29.53,WNW,295,10.0,14.0,83,0.00,,,0.00,WUHU216DAVISVP2,2013-11-23 12:58:00,
2013-11-23 07:59:00,25.6,21.1,29.53,West,279,9.0,14.0,83,0.00,,,0.00,WUHU216DAVISVP2,2013-11-23 12:59:00,
2013-11-23 08:00:00,25.6,21.1,29.53,WNW,288,10.0,14.0,83,0.00,,,0.00,WUHU216DAVISVP2,2013-11-23 13:00:00,
2013-11-23 08:01:00,25.6,21.1,29.54,WNW,296,10.0,14.0,83,0.00,,,0.00,WUHU216DAVISVP2,2013-11-23 13:01:00,
2013-11-23 08:02:00,25.6,21.1,29.54,NW,309,10.0,14.0,83,0.00,,,0.00,WUHU216DAVISVP2,2013-11-23 13:02:00,
2013-11-23 08:04:00,25.5,21.0,29.54,NW,304,10.0,13.0,83,0.00,,,0.00,WUHU216DAVISVP2,2013-11-23 13:04:00,
2013-11-23 08:05:00,25.5,21.0,29.54,NW,305,9.0,13.0,83,0.00,,,0.00,WUHU216DAVISVP2,2013-11-23 13:05:00,
2013-11-23 08:06:00,25.5,21.3,29.54,WNW,287,9.0,13.0,84,0.00,,,0.00,WUHU216DAVISVP2,2013-11-23 13:06:00,
2013-11-23 08:07:00,25.5,21.3,29.54,NW,308,10.0,13.0,84,0.00,,,0.00,WUHU216DAVISVP2,2013-11-23 13:07:00,
2013-11-23 08:09:00,25.5,21.3,29.54,NW,304,11.0,13.0,84,0.00,,,0.00,WUHU216DAVISVP2,2013-11-23 13:09:00,
2013-11-23 08:10:00,25.5,21.3,29.54,WNW,291,11.0,13.0,84,0.00,,,0.00,WUHU216DAVISVP2,2013-11-23 13:10:00,
2013-11-23 08:12:00,25.6,21.4,29.54,NW,308,8.0,14.0,84,0.00,,,0.00,WUHU216DAVISVP2,2013-11-23 13:12:00,
2013-11-23 08:15:00,25.6,21.4,29.54,WNW,299,8.0,14.0,84,0.00,,,0.00,WUHU216DAVISVP2,2013-11-23 13:15:00,
2013-11-23 08:16:00,25.6,21.4,29.54,WNW,291,7.0,14.0,84,0.00,,,0.00,WUHU216DAVISVP2,2013-11-23 13:16:00,
2013-11-23 08:17:00,25.6,21.4,29.54,West,274,13.0,14.0,84,0.00,,,0.00,WUHU216DAVISVP2,2013-11-23 13:17:00,
2013-11-23 08:20:00,25.6,21.4,29.54,West,278,6.0,14.0,84,0.00,,,0.00,WUHU216DAVISVP2,2013-11-23 13:20:00,
2013-11-23 08:21:00,25.6,21.4,29.54,WNW,285,8.0,14.0,84,0.00,,,0.00,WUHU216DAVISVP2,2013-11-23 13:21:00,
2013-11-23 08:22:00,25.6,21.4,29.54,WNW,283,9.0,14.0,84,0.00,,,0.00,WUHU216DAVISVP2,2013-11-23 13:22:00,
2013-11-23 08:23:00,25.6,21.4,29.54,WNW,283,9.0,14.0,84,0.00,,,0.00,WUHU216DAVISVP2,2013-11-23 13:23:00,
2013-11-23 08:25:00,25.6,21.4,29.55,WNW,300,8.0,14.0,84,0.00,,,0.00,WUHU216DAVISVP2,2013-11-23 13:25:00,
2013-11-23 08:26:00,25.7,21.5,29.54,NW,310,7.0,14.0,84,0.00,,,0.00,WUHU216DAVISVP2,2013-11-23 13:26:00,
2013-11-23 08:27:00,25.7,21.5,29.54,NW,308,7.0,14.0,84,0.00,,,0.00,WUHU216DAVISVP2,2013-11-23 13:27:00,
2013-11-23 08:28:00,25.7,21.5,29.54,NW,305,8.0,14.0,84,0.00,,,0.00,WUHU216DAVISVP2,2013-11-23 13:28:00,
2013-11-23 08:30:00,25.8,21.6,29.54,WNW,289,9.0,14.0,84,0.00,,,0.00,WUHU216DAVISVP2,2013-11-23 13:30:00,
2013-11-23 08:31:00,25.8,21.6,29.54,WNW,299,11.0,14.0,84,0.00,,,0.00,WUHU216DAVISVP2,2013-11-23 13:31:00,
2013-11-23 08:33:00,25.8,21.6,29.55,NW,309,10.0,16.0,84,0.00,,,0.00,WUHU216DAVISVP2,2013-11-23 13:33:00,
2013-11-23 08:34:00,25.8,21.6,29.55,WNW,286,12.0,16.0,84,0.00,,,0.00,WUHU216DAVISVP2,2013-11-23 13:34:00,
2013-11-23 08:35:00,25.8,21.6,29.55,West,277,14.0,16.0,84,0.00,,,0.00,WUHU216DAVISVP2,2013-11-23 13:35:00,
2013-11-23 08:36:00,25.8,21.3,29.55,WNW,296,13.0,16.0,83,0.00,,,0.00,WUHU216DAVISVP2,2013-11-23 13:36:00,
2013-11-23 08:38:00,25.9,21.4,29.55,WNW,291,12.0,16.0,83,0.00,,,0.00,WUHU216DAVISVP2,2013-11-23 13:38:00,
2013-11-23 08:40:00,25.9,21.4,29.55,NW,304,16.0,16.0,83,0.00,,,0.00,WUHU216DAVISVP2,2013-11-23 13:40:00,
2013-11-23 08:41:00,25.8,21.3,29.55,WNW,301,12.0,18.0,83,0.00,,,0.00,WUHU216DAVISVP2,2013-11-23 13:41:00,
2013-11-23 08:43:00,25.9,21.4,29.55,NW,312,11.0,19.0,83,0.00,,,0.00,WUHU216DAVISVP2,2013-11-23 13:43:00,
2013-11-23 08:45:00,25.9,21.4,29.55,WNW,293,18.0,19.0,83,0.00,,,0.00,WUHU216DAVISVP2,2013-11-23 13:45:00,
2013-11-23 08:46:00,25.8,21.3,29.55,NW,311,10.0,19.0,83,0.00,,,0.00,WUHU216DAVISVP2,2013-11-23 13:46:00,
2013-11-23 08:47:00,25.8,21.3,29.55,NW,312,9.0,19.0,83,0.00,,,0.00,WUHU216DAVISVP2,2013-11-23 13:47:00,
2013-11-23 08:48:00,25.9,21.4,29.55,WNW,286,16.0,19.0,83,0.00,,,0.00,WUHU216DAVISVP2,2013-11-23 13:48:00,
2013-11-23 08:50:00,25.9,21.4,29.55,WNW,291,9.0,19.0,83,0.00,,,0.00,WUHU216DAVISVP2,2013-11-23 13:50:00,
2013-11-23 08:51:00,25.9,21.4,29.55,NW,308,7.0,19.0,83,0.00,,,0.00,WUHU216DAVISVP2,2013-11-23 13:51:00,
2013-11-23 08:52:00,25.9,21.4,29.55,NW,316,10.0,19.0,83,0.00,,,0.00,WUHU216DAVISVP2,2013-11-23 13:52:00,
2013-11-23 08:53:00,25.8,21.3,29.55,NW,312,14.0,19.0,83,0.00,,,0.00,WUHU216DAVISVP2,2013-11-23 13:53:00,
2013-11-23 08:54:00,25.8,21.3,29.55,WNW,295,18.0,19.0,83,0.00,,,0.00,WUHU216DAVISVP2,2013-11-23 13:54:00,
2013-11-23 08:56:00,25.8,21.3,29.55,NW,312,12.0,19.0,83,0.00,,,0.00,WUHU216DAVISVP2,2013-11-23 13:56:00,
2013-11-23 08:57:00,25.9,21.4,29.55,NW,310,10.0,19.0,83,0.00,,,0.00,WUHU216DAVISVP2,2013-11-23 13:57:00,
2013-11-23 08:59:00,25.9,21.7,29.55,WNW,297,7.0,19.0,84,0.00,,,0.00,WUHU216DAVISVP2,2013-11-23 13:59:00,
2013-11-23 09:01:00,26.0,21.8,29.56,WNW,297,10.0,19.0,84,0.00,,,0.00,WUHU216DAVISVP2,2013-11-23 14:01:00,
2013-11-23 09:02:00,26.0,21.8,29.56,WNW,302,7.0,19.0,84,0.00,,,0.00,WUHU216DAVISVP2,2013-11-23 14:02:00,
2013-11-23 09:03:00,26.0,21.8,29.56,WNW,290,9.0,19.0,84,0.00,,,0.00,WUHU216DAVISVP2,2013-11-23 14:03:00,
2013-11-23 09:04:00,26.1,21.9,29.56,WNW,301,8.0,19.0,84,0.00,,,0.00,WUHU216DAVISVP2,2013-11-23 14:04:00,
2013-11-23 09:06:00,26.2,22.0,29.55,WNW,303,8.0,19.0,84,0.00,,,0.00,WUHU216DAVISVP2,2013-11-23 14:06:00,
2013-11-23 09:07:00,26.2,22.0,29.56,NW,308,11.0,18.0,84,0.00,,,0.00,WUHU216DAVISVP2,2013-11-23 14:07:00,
2013-11-23 09:08:00,26.2,22.0,29.56,WNW,292,12.0,18.0,84,0.00,,,0.00,WUHU216DAVISVP2,2013-11-23 14:08:00,
2013-11-23 09:09:00,26.2,21.7,29.55,NW,308,12.0,18.0,83,0.00,,,0.00,WUHU216DAVISVP2,2013-11-23 14:09:00,
2013-11-23 09:11:00,26.3,21.8,29.56,WNW,302,11.0,18.0,83,0.00,,,0.00,WUHU216DAVISVP2,2013-11-23 14:11:00,
2013-11-23 09:13:00,26.3,21.8,29.55,NW,322,8.0,16.0,83,0.00,,,0.00,WUHU216DAVISVP2,2013-11-23 14:13:00,
2013-11-23 09:14:00,26.4,21.9,29.55,WNW,295,14.0,16.0,83,0.00,,,0.00,WUHU216DAVISVP2,2013-11-23 14:14:00,
2013-11-23 09:15:00,26.4,21.9,29.56,WNW,285,11.0,16.0,83,0.00,,,0.00,WUHU216DAVISVP2,2013-11-23 14:15:00,
2013-11-23 09:17:00,26.5,22.0,29.56,NW,318,9.0,16.0,83,0.00,,,0.00,WUHU216DAVISVP2,2013-11-23 14:17:00,
2013-11-23 09:18:00,26.5,22.3,29.56,WNW,293,9.0,16.0,84,0.00,,,0.00,WUHU216DAVISVP2,2013-11-23 14:18:00,
2013-11-23 09:19:00,26.6,22.1,29.56,NW,305,12.0,16.0,83,0.00,,,0.00,WUHU216DAVISVP2,2013-11-23 14:19:00,
2013-11-23 09:20:00,26.6,22.1,29.56,NW,308,8.0,16.0,83,0.00,,,0.00,WUHU216DAVISVP2,2013-11-23 14:20:00,
2013-11-23 09:22:00,26.6,22.1,29.56,NW,310,11.0,16.0,83,0.00,,,0.00,WUHU216DAVISVP2,2013-11-23 14:22:00,
2013-11-23 09:23:00,26.6,22.1,29.56,WNW,300,12.0,16.0,83,0.00,,,0.00,WUHU216DAVISVP2,2013-11-23 14:23:00,
2013-11-23 09:24:00,26.6,22.1,29.56,NW,314,7.0,16.0,83,0.00,,,0.00,WUHU216DAVISVP2,2013-11-23 14:24:00,
2013-11-23 09:25:00,26.7,22.2,29.56,WNW,295,6.0,16.0,83,0.00,,,0.00,WUHU216DAVISVP2,2013-11-23 14:25:00,
2013-11-23 09:27:00,26.9,22.4,29.56,WNW,297,6.0,16.0,83,0.00,,,0.00,WUHU216DAVISVP2,2013-11-23 14:27:00,
2013-11-23 09:28:00,26.9,22.4,29.56,WNW,299,7.0,16.0,83,0.00,,,0.00,WUHU216DAVISVP2,2013-11-23 14:28:00,
2013-11-23 09:29:00,26.9,22.4,29.56,WNW,286,12.0,16.0,83,0.00,,,0.00,WUHU216DAVISVP2,2013-11-23 14:29:00,
2013-11-23 09:30:00,26.9,22.4,29.56,NW,313,12.0,16.0,83,0.00,,,0.00,WUHU216DAVISVP2,2013-11-23 14:30:00,
2013-11-23 09:31:00,27.0,22.5,29.56,NW,322,10.0,16.0,83,0.00,,,0.00,WUHU216DAVISVP2,2013-11-23 14:31:00,
2013-11-23 09:32:00,27.0,22.5,29.56,NW,324,8.0,14.0,83,0.00,,,0.00,WUHU216DAVISVP2,2013-11-23 14:32:00,
2013-11-23 09:33:00,27.1,22.6,29.56,WNW,301,8.0,14.0,83,0.00,,,0.00,WUHU216DAVISVP2,2013-11-23 14:33:00,
2013-11-23 09:35:00,27.1,22.6,29.56,WNW,303,15.0,15.0,83,0.00,,,0.00,WUHU216DAVISVP2,2013-11-23 14:35:00,
2013-11-23 09:37:00,27.1,22.6,29.56,WNW,298,13.0,16.0,83,0.00,,,0.00,WUHU216DAVISVP2,2013-11-23 14:37:00,
2013-11-23 09:38:00,27.1,22.6,29.56,WNW,298,9.0,18.0,83,0.00,,,0.00,WUHU216DAVISVP2,2013-11-23 14:38:00,
2013-11-23 09:40:00,27.1,22.6,29.56,NW,319,7.0,18.0,83,0.00,,,0.00,WUHU216DAVISVP2,2013-11-23 14:40:00,
2013-11-23 09:42:00,27.1,22.6,29.56,NW,310,5.0,18.0,83,0.00,,,0.00,WUHU216DAVISVP2,2013-11-23 14:42:00,
2013-11-23 09:43:00,27.2,22.7,29.56,NNW,341,6.0,18.0,83,0.00,,,0.00,WUHU216DAVISVP2,2013-11-23 14:43:00,
2013-11-23 09:45:00,27.3,22.8,29.56,NW,320,9.0,18.0,83,0.00,,,0.00,WUHU216DAVISVP2,2013-11-23 14:45:00,
2013-11-23 09:46:00,27.3,22.8,29.56,NNW,332,9.0,18.0,83,0.00,,,0.00,WUHU216DAVISVP2,2013-11-23 14:46:00,
2013-11-23 09:47:00,27.3,22.8,29.56,NW,318,14.0,18.0,83,0.00,,,0.00,WUHU216DAVISVP2,2013-11-23 14:47:00,
2013-11-23 09:48:00,27.3,22.8,29.56,NW,316,10.0,18.0,83,0.00,,,0.00,WUHU216DAVISVP2,2013-11-23 14:48:00,
2013-11-23 09:50:00,27.3,22.8,29.56,NW,314,14.0,18.0,83,0.00,,,0.00,WUHU216DAVISVP2,2013-11-23 14:50:00,
2013-11-23 09:51:00,27.4,22.9,29.56,NW,308,11.0,18.0,83,0.00,,,0.00,WUHU216DAVISVP2,2013-11-23 14:51:00,
2013-11-23 09:53:00,27.5,23.0,29.56,WNW,296,9.0,18.0,83,0.00,,,0.00,WUHU216DAVISVP2,2013-11-23 14:53:00,
2013-11-23 09:54:00,27.5,23.0,29.56,NW,308,14.0,18.0,83,0.00,,,0.00,WUHU216DAVISVP2,2013-11-23 14:54:00,
2013-11-23 09:55:00,27.6,23.1,29.57,NNW,345,5.0,18.0,83,0.00,,,0.00,WUHU216DAVISVP2,2013-11-23 14:55:00,
2013-11-23 09:56:00,27.6,23.1,29.57,WNW,297,10.0,18.0,83,0.00,,,0.00,WUHU216DAVISVP2,2013-11-23 14:56:00,
2013-11-23 09:58:00,27.7,23.2,29.57,WNW,295,13.0,19.0,83,0.00,,,0.00,WUHU216DAVISVP2,2013-11-23 14:58:00,
2013-11-23 09:59:00,27.7,22.9,29.56,NW,309,9.0,19.0,82,0.00,,,0.00,WUHU216DAVISVP2,2013-11-23 14:59:00,
2013-11-23 10:00:00,27.8,23.3,29.56,NW,305,8.0,19.0,83,0.00,,,0.00,WUHU216DAVISVP2,2013-11-23 15:00:00,
2013-11-23 10:01:00,27.9,23.4,29.56,NW,311,11.0,19.0,83,0.00,,,0.00,WUHU216DAVISVP2,2013-11-23 15:01:00,
2013-11-23 10:03:00,28.0,23.5,29.56,NW,304,8.0,19.0,83,0.00,,,0.00,WUHU216DAVISVP2,2013-11-23 15:03:00,
2013-11-23 10:04:00,28.1,23.6,29.57,NNW,330,11.0,19.0,83,0.00,,,0.00,WUHU216DAVISVP2,2013-11-23 15:04:00,
2013-11-23 10:05:00,28.1,23.6,29.57,NNW,328,9.0,19.0,83,0.00,,,0.00,WUHU216DAVISVP2,2013-11-23 15:05:00,
2013-11-23 10:06:00,28.1,23.3,29.56,NW,316,10.0,19.0,82,0.00,,,0.00,WUHU216DAVISVP2,2013-11-23 15:06:00,
2013-11-23 10:08:00,28.1,23.3,29.56,NW,312,7.0,19.0,82,0.00,,,0.00,WUHU216DAVISVP2,2013-11-23 15:08:00,
2013-11-23 10:10:00,28.2,23.4,29.56,WNW,298,18.0,19.0,82,0.00,,,0.00,WUHU216DAVISVP2,2013-11-23 15:10:00,
2013-11-23 10:11:00,28.1,23.3,29.56,WNW,294,12.0,19.0,82,0.00,,,0.00,WUHU216DAVISVP2,2013-11-23 15:11:00,
2013-11-23 10:13:00,28.1,23.3,29.56,NW,318,11.0,19.0,82,0.00,,,0.00,WUHU216DAVISVP2,2013-11-23 15:13:00,
2013-11-23 10:14:00,28.2,23.4,29.56,NW,313,12.0,19.0,82,0.00,,,0.00,WUHU216DAVISVP2,2013-11-23 15:14:00,
2013-11-23 10:15:00,28.3,23.5,29.56,WNW,299,10.0,19.0,82,0.00,,,0.00,WUHU216DAVISVP2,2013-11-23 15:15:00,
2013-11-23 10:16:00,28.3,23.5,29.56,NW,308,13.0,19.0,82,0.00,,,0.00,WUHU216DAVISVP2,2013-11-23 15:16:00,
2013-11-23 10:18:00,28.5,23.7,29.56,NNW,337,8.0,19.0,82,0.00,,,0.00,WUHU216DAVISVP2,2013-11-23 15:18:00,
2013-11-23 10:19:00,28.5,23.7,29.56,NW,312,11.0,19.0,82,0.00,,,0.00,WUHU216DAVISVP2,2013-11-23 15:19:00,
2013-11-23 10:20:00,28.6,23.8,29.57,NW,314,13.0,19.0,82,0.00,,,0.00,WUHU216DAVISVP2,2013-11-23 15:20:00,
2013-11-23 10:21:00,28.5,23.7,29.57,NW,315,15.0,19.0,82,0.00,,,0.00,WUHU216DAVISVP2,2013-11-23 15:21:00,
2013-11-23 10:23:00,28.6,23.8,29.56,NW,310,7.0,19.0,82,0.00,,,0.00,WUHU216DAVISVP2,2013-11-23 15:23:00,
2013-11-23 10:24:00,28.7,23.9,29.56,WNW,298,12.0,19.0,82,0.00,,,0.00,WUHU216DAVISVP2,2013-11-23 15:24:00,
2013-11-23 10:26:00,28.7,23.9,29.56,NW,316,7.0,18.0,82,0.00,,,0.00,WUHU216DAVISVP2,2013-11-23 15:26:00,
2013-11-23 10:27:00,28.8,24.0,29.56,NW,314,11.0,18.0,82,0.00,,,0.00,WUHU216DAVISVP2,2013-11-23 15:27:00,
2013-11-23 10:28:00,28.8,24.0,29.56,NNW,337,8.0,18.0,82,0.00,,,0.00,WUHU216DAVISVP2,2013-11-23 15:28:00,
2013-11-23 10:29:00,28.8,24.0,29.56,NNW,339,11.0,18.0,82,0.00,,,0.00,WUHU216DAVISVP2,2013-11-23 15:29:00,
2013-11-23 10:31:00,28.9,24.1,29.56,WNW,303,8.0,18.0,82,0.00,,,0.00,WUHU216DAVISVP2,2013-11-23 15:31:00,
2013-11-23 10:32:00,29.0,24.2,29.57,NW,312,9.0,18.0,82,0.00,,,0.00,WUHU216DAVISVP2,2013-11-23 15:32:00,
2013-11-23 10:33:00,29.0,24.2,29.57,NW,319,10.0,18.0,82,0.00,,,0.00,WUHU216DAVISVP2,2013-11-23 15:33:00,
2013-11-23 10:34:00,29.0,24.2,29.57,NW,314,10.0,18.0,82,0.00,,,0.00,WUHU216DAVISVP2,2013-11-23 15:34:00,
2013-11-23 10:36:00,29.0,23.9,29.57,NW,308,8.0,18.0,81,0.00,,,0.00,WUHU216DAVISVP2,2013-11-23 15:36:00,
2013-11-23 10:37:00,29.0,23.9,29.57,NW,312,8.0,18.0,81,0.00,,,0.00,WUHU216DAVISVP2,2013-11-23 15:37:00,
2013-11-23 10:38:00,29.2,24.4,29.57,NNW,336,12.0,18.0,82,0.00,,,0.00,WUHU216DAVISVP2,2013-11-23 15:38:00,
2013-11-23 10:39:00,29.3,24.2,29.57,NNW,334,14.0,18.0,81,0.00,,,0.00,WUHU216DAVISVP2,2013-11-23 15:39:00,
2013-11-23 10:41:00,29.3,24.2,29.57,NNW,335,14.0,19.0,81,0.00,,,0.00,WUHU216DAVISVP2,2013-11-23 15:41:00,
2013-11-23 10:42:00,29.3,24.2,29.57,NW,317,10.0,19.0,81,0.00,,,0.00,WUHU216DAVISVP2,2013-11-23 15:42:00,
2013-11-23 10:43:00,29.3,23.9,29.57,NW,313,16.0,19.0,80,0.00,,,0.00,WUHU216DAVISVP2,2013-11-23 15:43:00,
2013-11-23 10:44:00,29.3,23.9,29.57,NNW,346,11.0,19.0,80,0.00,,,0.00,WUHU216DAVISVP2,2013-11-23 15:44:00,
2013-11-23 10:46:00,29.4,24.3,29.57,NW,313,12.0,19.0,81,0.00,,,0.00,WUHU216DAVISVP2,2013-11-23 15:46:00,
2013-11-23 10:47:00,29.4,24.3,29.57,NW,319,12.0,19.0,81,0.00,,,0.00,WUHU216DAVISVP2,2013-11-23 15:47:00,
2013-11-23 10:48:00,29.6,24.5,29.57,WNW,303,7.0,19.0,81,0.00,,,0.00,WUHU216DAVISVP2,2013-11-23 15:48:00,
2013-11-23 10:50:00,29.7,24.6,29.57,NW,312,9.0,19.0,81,0.00,,,0.00,WUHU216DAVISVP2,2013-11-23 15:50:00,
2013-11-23 10:51:00,29.7,24.3,29.56,NW,310,13.0,19.0,80,0.00,,,0.00,WUHU216DAVISVP2,2013-11-23 15:51:00,
2013-11-23 10:52:00,29.7,24.3,29.56,NNW,329,11.0,19.0,80,0.00,,,0.00,WUHU216DAVISVP2,2013-11-23 15:52:00,
2013-11-23 10:53:00,29.7,24.3,29.57,NW,321,9.0,19.0,80,0.00,,,0.00,WUHU216DAVISVP2,2013-11-23 15:53:00,
2013-11-23 10:54:00,29.7,24.3,29.57,NW,322,12.0,19.0,80,0.00,,,0.00,WUHU216DAVISVP2,2013-11-23 15:54:00,
2013-11-23 10:55:00,29.7,24.3,29.56,NW,313,7.0,19.0,80,0.00,,,0.00,WUHU216DAVISVP2,2013-11-23 15:55:00,
2013-11-23 10:57:00,29.8,24.1,29.57,NW,316,13.0,19.0,79,0.00,,,0.00,WUHU216DAVISVP2,2013-11-23 15:57:00,
2013-11-23 10:58:00,29.8,24.1,29.57,NNW,340,14.0,23.0,79,0.00,,,0.00,WUHU216DAVISVP2,2013-11-23 15:58:00,
2013-11-23 10:59:00,29.8,24.1,29.57,WNW,302,11.0,23.0,79,0.00,,,0.00,WUHU216DAVISVP2,2013-11-23 15:59:00,
2013-11-23 11:00:00,29.9,24.2,29.56,NW,318,7.0,23.0,79,0.00,,,0.00,WUHU216DAVISVP2,2013-11-23 16:00:00,
2013-11-23 11:02:00,30.1,24.4,29.57,NNW,329,12.0,23.0,79,0.00,,,0.00,WUHU216DAVISVP2,2013-11-23 16:02:00,
2013-11-23 11:03:00,30.1,24.1,29.57,NNW,332,15.0,23.0,78,0.00,,,0.00,WUHU216DAVISVP2,2013-11-23 16:03:00,
2013-11-23 11:04:00,30.0,24.0,29.57,NW,318,8.0,23.0,78,0.00,,,0.00,WUHU216DAVISVP2,2013-11-23 16:04:00,
2013-11-23 11:05:00,30.0,24.3,29.57,WNW,303,11.0,23.0,79,0.00,,,0.00,WUHU216DAVISVP2,2013-11-23 16:05:00,
2013-11-23 11:07:00,30.1,24.4,29.57,NNW,346,11.0,23.0,79,0.00,,,0.00,WUHU216DAVISVP2,2013-11-23 16:07:00,
2013-11-23 11:08:00,30.3,24.6,29.57,NW,319,18.0,23.0,79,0.00,,,0.00,WUHU216DAVISVP2,2013-11-23 16:08:00,
2013-11-23 11:10:00,30.3,24.6,29.57,NW,318,11.0,23.0,79,0.00,,,0.00,WUHU216DAVISVP2,2013-11-23 16:10:00,
2013-11-23 11:11:00,30.3,24.3,29.57,NW,316,19.0,23.0,78,0.00,,,0.00,WUHU216DAVISVP2,2013-11-23 16:11:00,
2013-11-23 11:12:00,30.3,24.3,29.57,NNW,334,19.0,23.0,78,0.00,,,0.00,WUHU216DAVISVP2,2013-11-23 16:12:00,
2013-11-23 11:13:00,30.2,24.2,29.57,NW,310,18.0,23.0,78,0.00,,,0.00,WUHU216DAVISVP2,2013-11-23 16:13:00,
2013-11-23 11:14:00,30.2,24.2,29.57,NW,310,12.0,23.0,78,0.00,,,0.00,WUHU216DAVISVP2,2013-11-23 16:14:00,
2013-11-23 11:15:00,30.2,23.9,29.57,North,354,9.0,23.0,77,0.00,,,0.00,WUHU216DAVISVP2,2013-11-23 16:15:00,
2013-11-23 11:17:00,30.4,24.4,29.57,NW,305,13.0,22.0,78,0.00,,,0.00,WUHU216DAVISVP2,2013-11-23 16:17:00,
2013-11-23 11:18:00,30.4,24.4,29.57,WNW,290,11.0,22.0,78,0.00,,,0.00,WUHU216DAVISVP2,2013-11-23 16:18:00,
2013-11-23 11:19:00,30.5,24.5,29.57,NNW,335,16.0,22.0,78,0.00,,,0.00,WUHU216DAVISVP2,2013-11-23 16:19:00,
2013-11-23 11:20:00,30.4,24.1,29.57,NNW,339,13.0,22.0,77,0.00,,,0.00,WUHU216DAVISVP2,2013-11-23 16:20:00,
2013-11-23 11:22:00,30.4,24.4,29.57,NNW,333,15.0,22.0,78,0.00,,,0.00,WUHU216DAVISVP2,2013-11-23 16:22:00,
2013-11-23 11:23:00,30.4,24.4,29.57,NNW,345,12.0,22.0,78,0.00,,,0.00,WUHU216DAVISVP2,2013-11-23 16:23:00,
2013-11-23 11:24:00,30.5,24.5,29.57,NNW,346,16.0,22.0,78,0.00,,,0.00,WUHU216DAVISVP2,2013-11-23 16:24:00,
2013-11-23 11:25:00,30.5,24.2,29.57,NW,311,10.0,22.0,77,0.00,,,0.00,WUHU216DAVISVP2,2013-11-23 16:25:00,
2013-11-23 11:27:00,30.5,24.2,29.57,NNW,331,12.0,22.0,77,0.00,,,0.00,WUHU216DAVISVP2,2013-11-23 16:27:00,
2013-11-23 11:28:00,30.5,23.9,29.57,NNW,333,13.0,22.0,76,0.00,,,0.00,WUHU216DAVISVP2,2013-11-23 16:28:00,
2013-11-23 11:29:00,30.5,23.9,29.57,NW,317,8.0,22.0,76,0.00,,,0.00,WUHU216DAVISVP2,2013-11-23 16:29:00,
2013-11-23 11:30:00,30.6,24.3,29.57,NNW,339,11.0,22.0,77,0.00,,,0.00,WUHU216DAVISVP2,2013-11-23 16:30:00,
2013-11-23 11:32:00,30.7,24.4,29.57,WNW,293,16.0,21.0,77,0.00,,,0.00,WUHU216DAVISVP2,2013-11-23 16:32:00,
2013-11-23 11:33:00,30.7,24.4,29.57,NW,305,16.0,21.0,77,0.00,,,0.00,WUHU216DAVISVP2,2013-11-23 16:33:00,
2013-11-23 11:34:00,30.7,24.1,29.57,NW,314,5.0,21.0,76,0.00,,,0.00,WUHU216DAVISVP2,2013-11-23 16:34:00,
2013-11-23 11:35:00,30.7,24.1,29.57,NNW,342,13.0,21.0,76,0.00,,,0.00,WUHU216DAVISVP2,2013-11-23 16:35:00,
2013-11-23 11:38:00,30.6,23.7,29.56,North,354,11.0,21.0,75,0.00,,,0.00,WUHU216DAVISVP2,2013-11-23 16:38:00,
2013-11-23 11:39:00,30.6,23.7,29.56,NW,310,21.0,21.0,75,0.00,,,0.00,WUHU216DAVISVP2,2013-11-23 16:39:00,
2013-11-23 11:40:00,30.6,23.7,29.56,NW,311,15.0,21.0,75,0.00,,,0.00,WUHU216DAVISVP2,2013-11-23 16:40:00,
2013-11-23 11:41:00,30.6,23.3,29.57,NW,313,23.0,24.0,74,0.00,,,0.00,WUHU216DAVISVP2,2013-11-23 16:41:00,
2013-11-23 11:43:00,30.6,23.0,29.57,NNW,331,23.0,24.0,73,0.00,,,0.00,WUHU216DAVISVP2,2013-11-23 16:43:00,
2013-11-23 11:44:00,30.6,22.7,29.56,NNW,328,11.0,25.0,72,0.00,,,0.00,WUHU216DAVISVP2,2013-11-23 16:44:00,
2013-11-23 11:45:00,30.5,22.6,29.57,North,359,14.0,25.0,72,0.00,,,0.00,WUHU216DAVISVP2,2013-11-23 16:45:00,
2013-11-23 11:46:00,30.6,22.7,29.57,North,354,11.0,25.0,72,0.00,,,0.00,WUHU216DAVISVP2,2013-11-23 16:46:00,
2013-11-23 11:48:00,30.6,23.0,29.57,North,354,13.0,25.0,73,0.00,,,0.00,WUHU216DAVISVP2,2013-11-23 16:48:00,
2013-11-23 11:50:00,30.7,23.4,29.56,NNW,333,14.0,25.0,74,0.00,,,0.00,WUHU216DAVISVP2,2013-11-23 16:50:00,
2013-11-23 11:51:00,30.7,23.4,29.56,North,354,11.0,25.0,74,0.00,,,0.00,WUHU216DAVISVP2,2013-11-23 16:51:00,
2013-11-23 11:52:00,30.8,23.5,29.56,NNW,343,13.0,25.0,74,0.00,,,0.00,WUHU216DAVISVP2,2013-11-23 16:52:00,
2013-11-23 11:53:00,30.9,23.6,29.56,NNW,332,9.0,25.0,74,0.00,,,0.00,WUHU216DAVISVP2,2013-11-23 16:53:00,
2013-11-23 11:54:00,31.0,23.7,29.57,NW,320,11.0,25.0,74,0.00,,,0.00,WUHU216DAVISVP2,2013-11-23 16:54:00,
2013-11-23 11:55:00,31.0,23.4,29.57,NNW,331,15.0,25.0,73,0.00,,,0.00,WUHU216DAVISVP2,2013-11-23 16:55:00,
2013-11-23 11:56:00,30.9,23.0,29.56,North,359,19.0,25.0,72,0.00,,,0.00,WUHU216DAVISVP2,2013-11-23 16:56:00,
2013-11-23 11:57:00,30.9,23.0,29.56,North,354,13.0,25.0,72,0.00,,,0.00,WUHU216DAVISVP2,2013-11-23 16:57:00,
2013-11-23 11:58:00,30.8,22.9,29.56,NNW,336,12.0,25.0,72,0.00,,,0.00,WUHU216DAVISVP2,2013-11-23 16:58:00,
2013-11-23 11:59:00,30.8,23.2,29.57,North,4,11.0,25.0,73,0.00,,,0.00,WUHU216DAVISVP2,2013-11-23 16:59:00,
2013-11-23 12:01:00,30.8,23.5,29.57,North,350,16.0,25.0,74,0.00,,,0.00,WUHU216DAVISVP2,2013-11-23 17:01:00,
2013-11-23 12:02:00,30.5,23.6,29.57,NNW,339,11.0,23.0,75,0.00,,,0.00,WUHU216DAVISVP2,2013-11-23 17:02:00,
2013-11-23 12:03:00,30.2,23.6,29.57,North,354,26.0,26.0,76,0.00,,,0.00,WUHU216DAVISVP2,2013-11-23 17:03:00,
2013-11-23 12:04:00,30.2,23.6,29.57,North,10,22.0,26.0,76,0.00,,,0.00,WUHU216DAVISVP2,2013-11-23 17:04:00,
2013-11-23 12:06:00,29.7,23.1,29.57,North,359,20.0,26.0,76,0.00,,,0.00,WUHU216DAVISVP2,2013-11-23 17:06:00,
2013-11-23 12:07:00,29.6,23.0,29.57,North,354,19.0,26.0,76,0.00,,,0.00,WUHU216DAVISVP2,2013-11-23 17:07:00,
2013-11-23 12:08:00,29.6,23.3,29.57,NNW,342,15.0,26.0,77,0.00,,,0.00,WUHU216DAVISVP2,2013-11-23 17:08:00,
2013-11-23 12:09:00,29.6,23.6,29.57,North,359,18.0,26.0,78,0.00,,,0.00,WUHU216DAVISVP2,2013-11-23 17:09:00,
2013-11-23 12:10:00,29.6,23.6,29.57,North,359,18.0,26.0,78,0.00,,,0.00,WUHU216DAVISVP2,2013-11-23 17:10:00,
2013-11-23 12:11:00,29.5,23.8,29.57,NE,47,18.0,26.0,79,0.00,,,0.00,WUHU216DAVISVP2,2013-11-23 17:11:00,
2013-11-23 12:13:00,29.4,24.0,29.57,NNE,27,16.0,26.0,80,0.00,,,0.00,WUHU216DAVISVP2,2013-11-23 17:13:00,
2013-11-23 12:14:00,29.3,24.2,29.57,NNE,13,13.0,26.0,81,0.00,,,0.00,WUHU216DAVISVP2,2013-11-23 17:14:00,
2013-11-23 12:15:00,29.2,24.1,29.57,NNE,27,11.0,26.0,81,0.00,,,0.00,WUHU216DAVISVP2,2013-11-23 17:15:00,
2013-11-23 12:16:00,29.2,24.4,29.57,North,4,21.0,26.0,82,0.00,,,0.00,WUHU216DAVISVP2,2013-11-23 17:16:00,
2013-11-23 12:18:00,29.1,24.3,29.57,NNE,12,22.0,26.0,82,0.00,,,0.00,WUHU216DAVISVP2,2013-11-23 17:18:00,
2013-11-23 12:19:00,28.9,24.4,29.57,North,354,8.0,26.0,83,0.00,,,0.00,WUHU216DAVISVP2,2013-11-23 17:19:00,
2013-11-23 12:20:00,28.9,24.4,29.57,NNE,25,12.0,26.0,83,0.00,,,0.00,WUHU216DAVISVP2,2013-11-23 17:20:00,
2013-11-23 12:22:00,28.8,24.3,29.57,NNE,27,15.0,26.0,83,0.00,,,0.00,WUHU216DAVISVP2,2013-11-23 17:22:00,
2013-11-23 12:23:00,28.8,24.3,29.57,North,354,16.0,25.0,83,0.00,,,0.00,WUHU216DAVISVP2,2013-11-23 17:23:00,
2013-11-23 12:24:00,28.7,24.2,29.57,North,354,11.0,25.0,83,0.00,,,0.00,WUHU216DAVISVP2,2013-11-23 17:24:00,
2013-11-23 12:25:00,28.7,24.2,29.57,NNE,15,14.0,25.0,83,0.00,,,0.00,WUHU216DAVISVP2,2013-11-23 17:25:00,
2013-11-23 12:27:00,28.7,24.2,29.57,North,359,12.0,25.0,83,0.00,,,0.00,WUHU216DAVISVP2,2013-11-23 17:27:00,
2013-11-23 12:28:00,28.7,24.2,29.57,North,8,20.0,25.0,83,0.00,,,0.00,WUHU216DAVISVP2,2013-11-23 17:28:00,
2013-11-23 12:29:00,28.7,24.2,29.57,North,359,16.0,25.0,83,0.00,,,0.00,WUHU216DAVISVP2,2013-11-23 17:29:00,
2013-11-23 12:31:00,28.6,24.1,29.57,North,4,14.0,25.0,83,0.00,,,0.00,WUHU216DAVISVP2,2013-11-23 17:31:00,
2013-11-23 12:32:00,28.6,24.4,29.58,North,4,10.0,25.0,84,0.00,,,0.00,WUHU216DAVISVP2,2013-11-23 17:32:00,
2013-11-23 12:34:00,28.3,24.1,29.57,North,354,13.0,25.0,84,0.00,,,0.00,WUHU216DAVISVP2,2013-11-23 17:34:00,
2013-11-23 12:35:00,28.3,24.1,29.57,NNW,347,11.0,25.0,84,0.00,,,0.00,WUHU216DAVISVP2,2013-11-23 17:35:00,
2013-11-23 12:36:00,28.0,24.0,29.58,North,4,23.0,25.0,85,0.00,,,0.00,WUHU216DAVISVP2,2013-11-23 17:36:00,
2013-11-23 12:38:00,27.5,24.1,29.58,North,8,19.0,24.0,87,0.00,,,0.00,WUHU216DAVISVP2,2013-11-23 17:38:00,
2013-11-23 12:39:00,27.2,23.8,29.57,North,4,18.0,24.0,87,0.00,,,0.00,WUHU216DAVISVP2,2013-11-23 17:39:00,
2013-11-23 12:40:00,27.2,23.8,29.57,North,8,13.0,24.0,87,0.00,,,0.00,WUHU216DAVISVP2,2013-11-23 17:40:00,
2013-11-23 12:41:00,27.1,24.2,29.58,North,349,11.0,24.0,89,0.00,,,0.00,WUHU216DAVISVP2,2013-11-23 17:41:00,
2013-11-23 12:43:00,27.1,24.5,29.58,NNW,348,18.0,24.0,90,0.00,,,0.00,WUHU216DAVISVP2,2013-11-23 17:43:00,
2013-11-23 12:45:00,26.9,24.3,29.58,North,354,19.0,24.0,90,0.00,,,0.00,WUHU216DAVISVP2,2013-11-23 17:45:00,
2013-11-23 12:46:00,26.9,24.3,29.58,North,4,10.0,24.0,90,0.00,,,0.00,WUHU216DAVISVP2,2013-11-23 17:46:00,
2013-11-23 12:48:00,27.0,24.1,29.57,NNW,339,14.0,24.0,89,0.00,,,0.00,WUHU216DAVISVP2,2013-11-23 17:48:00,
2013-11-23 12:50:00,27.0,24.1,29.57,North,354,15.0,24.0,89,0.00,,,0.00,WUHU216DAVISVP2,2013-11-23 17:50:00,
2013-11-23 12:51:00,27.2,24.3,29.57,NNW,339,14.0,24.0,89,0.00,,,0.00,WUHU216DAVISVP2,2013-11-23 17:51:00,
2013-11-23 12:52:00,27.2,24.3,29.57,NNW,343,14.0,24.0,89,0.00,,,0.00,WUHU216DAVISVP2,2013-11-23 17:52:00,
2013-11-23 12:53:00,27.3,24.4,29.57,NW,318,10.0,24.0,89,0.00,,,0.00,WUHU216DAVISVP2,2013-11-23 17:53:00,
2013-11-23 12:55:00,27.6,24.7,29.57,North,354,11.0,24.0,89,0.00,,,0.00,WUHU216DAVISVP2,2013-11-23 17:55:00,
2013-11-23 12:56:00,27.6,24.7,29.57,NNW,333,8.0,24.0,89,0.00,,,0.00,WUHU216DAVISVP2,2013-11-23 17:56:00,
2013-11-23 12:58:00,27.9,24.8,29.58,NNW,334,11.0,21.0,88,0.00,,,0.00,WUHU216DAVISVP2,2013-11-23 17:58:00,
2013-11-23 12:59:00,27.9,24.5,29.58,NNW,341,19.0,21.0,87,0.00,,,0.00,WUHU216DAVISVP2,2013-11-23 17:59:00,
2013-11-23 13:00:00,27.9,24.5,29.58,NNW,338,15.0,25.0,87,0.00,,,0.00,WUHU216DAVISVP2,2013-11-23 18:00:00,
2013-11-23 13:01:00,27.9,24.5,29.58,North,4,12.0,25.0,87,0.00,,,0.00,WUHU216DAVISVP2,2013-11-23 18:01:00,
2013-11-23 13:02:00,27.9,24.2,29.58,NNW,335,23.0,25.0,86,0.00,,,0.00,WUHU216DAVISVP2,2013-11-23 18:02:00,
2013-11-23 13:03:00,27.7,24.0,29.58,North,349,15.0,25.0,86,0.00,,,0.00,WUHU216DAVISVP2,2013-11-23 18:03:00,
2013-11-23 13:04:00,27.7,24.0,29.58,NNW,328,24.0,25.0,86,0.00,,,0.00,WUHU216DAVISVP2,2013-11-23 18:04:00,
2013-11-23 13:05:00,27.5,23.8,29.58,NNW,348,13.0,25.0,86,0.00,,,0.00,WUHU216DAVISVP2,2013-11-23 18:05:00,
2013-11-23 13:06:00,27.5,23.8,29.58,NNW,335,16.0,25.0,86,0.00,,,0.00,WUHU216DAVISVP2,2013-11-23 18:06:00,
2013-11-23 13:07:00,27.5,23.8,29.58,NNW,334,12.0,25.0,86,0.00,,,0.00,WUHU216DAVISVP2,2013-11-23 18:07:00,
2013-11-23 13:09:00,27.6,23.9,29.58,NW,318,15.0,25.0,86,0.00,,,0.00,WUHU216DAVISVP2,2013-11-23 18:09:00,
2013-11-23 13:10:00,27.7,24.0,29.57,NNW,343,15.0,25.0,86,0.00,,,0.00,WUHU216DAVISVP2,2013-11-23 18:10:00,
2013-11-23 13:11:00,27.8,24.1,29.58,NNW,343,16.0,25.0,86,0.00,,,0.00,WUHU216DAVISVP2,2013-11-23 18:11:00,
2013-11-23 13:12:00,27.8,23.6,29.57,NW,321,15.0,25.0,84,0.00,,,0.00,WUHU216DAVISVP2,2013-11-23 18:12:00,
2013-11-23 13:14:00,27.8,23.3,29.58,North,354,26.0,30.0,83,0.00,,,0.00,WUHU216DAVISVP2,2013-11-23 18:14:00,
2013-11-23 13:16:00,27.7,22.9,29.58,North,354,21.0,30.0,82,0.00,,,0.00,WUHU216DAVISVP2,2013-11-23 18:16:00,
2013-11-23 13:17:00,27.7,22.9,29.58,NW,316,13.0,30.0,82,0.00,,,0.00,WUHU216DAVISVP2,2013-11-23 18:17:00,
2013-11-23 13:20:00,27.6,22.5,29.58,NNW,334,25.0,32.0,81,0.00,,,0.00,WUHU216DAVISVP2,2013-11-23 18:20:00,
2013-11-23 13:21:00,27.5,22.1,29.58,North,4,13.0,32.0,80,0.00,,,0.00,WUHU216DAVISVP2,2013-11-23 18:21:00,
2013-11-23 13:22:00,27.5,22.1,29.58,NNW,335,25.0,32.0,80,0.00,,,0.00,WUHU216DAVISVP2,2013-11-23 18:22:00,
2013-11-23 13:25:00,27.5,22.1,29.58,NNW,343,21.0,32.0,80,0.00,,,0.00,WUHU216DAVISVP2,2013-11-23 18:25:00,
2013-11-23 13:26:00,27.5,22.1,29.58,NNW,335,16.0,32.0,80,0.00,,,0.00,WUHU216DAVISVP2,2013-11-23 18:26:00,
2013-11-23 13:28:00,27.5,22.1,29.58,NNE,19,19.0,32.0,80,0.00,,,0.00,WUHU216DAVISVP2,2013-11-23 18:28:00,
2013-11-23 13:30:00,27.4,22.0,29.58,NW,324,14.0,32.0,80,0.00,,,0.00,WUHU216DAVISVP2,2013-11-23 18:30:00,
2013-11-23 13:31:00,27.5,22.1,29.58,NNW,340,14.0,32.0,80,0.00,,,0.00,WUHU216DAVISVP2,2013-11-23 18:31:00,
2013-11-23 13:32:00,27.4,22.3,29.58,North,354,18.0,32.0,81,0.00,,,0.00,WUHU216DAVISVP2,2013-11-23 18:32:00,
2013-11-23 13:33:00,27.4,22.3,29.58,NNW,333,14.0,32.0,81,0.00,,,0.00,WUHU216DAVISVP2,2013-11-23 18:33:00,
2013-11-23 13:35:00,27.4,22.6,29.58,NNE,21,13.0,32.0,82,0.00,,,0.00,WUHU216DAVISVP2,2013-11-23 18:35:00,
2013-11-23 13:36:00,27.4,22.6,29.58,North,9,11.0,32.0,82,0.00,,,0.00,WUHU216DAVISVP2,2013-11-23 18:36:00,
2013-11-23 13:37:00,27.4,22.6,29.58,NNW,348,15.0,32.0,82,0.00,,,0.00,WUHU216DAVISVP2,2013-11-23 18:37:00,
2013-11-23 13:38:00,27.4,22.6,29.58,North,354,19.0,26.0,82,0.00,,,0.00,WUHU216DAVISVP2,2013-11-23 18:38:00,
2013-11-23 13:40:00,27.4,22.6,29.58,NNW,347,10.0,28.0,82,0.00,,,0.00,WUHU216DAVISVP2,2013-11-23 18:40:00,
2013-11-23 13:41:00,27.5,22.7,29.58,NNW,333,15.0,28.0,82,0.00,,,0.00,WUHU216DAVISVP2,2013-11-23 18:41:00,
2013-11-23 13:42:00,27.6,22.5,29.58,NNW,348,12.0,28.0,81,0.00,,,0.00,WUHU216DAVISVP2,2013-11-23 18:42:00,
2013-11-23 13:43:00,27.8,23.0,29.58,NNE,12,16.0,28.0,82,0.00,,,0.00,WUHU216DAVISVP2,2013-11-23 18:43:00,
2013-11-23 13:44:00,27.8,23.0,29.59,North,9,23.0,28.0,82,0.00,,,0.00,WUHU216DAVISVP2,2013-11-23 18:44:00,
2013-11-23 13:45:00,27.7,22.6,29.59,North,8,16.0,32.0,81,0.00,,,0.00,WUHU216DAVISVP2,2013-11-23 18:45:00,
2013-11-23 13:46:00,27.5,22.7,29.59,NNE,14,22.0,32.0,82,0.00,,,0.00,WUHU216DAVISVP2,2013-11-23 18:46:00,
2013-11-23 13:47:00,26.8,22.6,29.59,North,11,10.0,32.0,84,0.00,,,0.00,WUHU216DAVISVP2,2013-11-23 18:47:00,
2013-11-23 13:48:00,26.6,22.4,29.59,NNW,339,19.0,32.0,84,0.00,,,0.00,WUHU216DAVISVP2,2013-11-23 18:48:00,
2013-11-23 13:49:00,26.3,22.6,29.59,North,354,18.0,32.0,86,0.00,,,0.00,WUHU216DAVISVP2,2013-11-23 18:49:00,
2013-11-23 13:50:00,26.1,22.7,29.59,North,354,21.0,32.0,87,0.00,,,0.00,WUHU216DAVISVP2,2013-11-23 18:50:00,
2013-11-23 13:51:00,26.0,22.6,29.59,NNW,346,15.0,32.0,87,0.00,,,0.00,WUHU216DAVISVP2,2013-11-23 18:51:00,
2013-11-23 13:52:00,26.0,22.6,29.59,NNE,18,13.0,32.0,87,0.00,,,0.00,WUHU216DAVISVP2,2013-11-23 18:52:00,
2013-11-23 13:53:00,26.0,22.6,29.59,NNW,348,14.0,32.0,87,0.00,,,0.00,WUHU216DAVISVP2,2013-11-23 18:53:00,
2013-11-23 13:55:00,26.2,22.8,29.59,North,8,16.0,32.0,87,0.00,,,0.00,WUHU216DAVISVP2,2013-11-23 18:55:00,
2013-11-23 13:56:00,26.3,22.6,29.59,North,8,13.0,32.0,86,0.00,,,0.00,WUHU216DAVISVP2,2013-11-23 18:56:00,
2013-11-23 13:57:00,26.4,22.5,29.59,North,354,19.0,32.0,85,0.00,,,0.00,WUHU216DAVISVP2,2013-11-23 18:57:00,
2013-11-23 13:58:00,26.5,22.6,29.59,NNW,340,12.0,32.0,85,0.00,,,0.00,WUHU216DAVISVP2,2013-11-23 18:58:00,
2013-11-23 13:59:00,26.6,22.4,29.59,NNW,341,8.0,32.0,84,0.00,,,0.00,WUHU216DAVISVP2,2013-11-23 18:59:00,
2013-11-23 14:00:00,26.7,22.5,29.59,NNW,345,12.0,32.0,84,0.00,,,0.00,WUHU216DAVISVP2,2013-11-23 19:00:00,
2013-11-23 14:01:00,26.8,22.6,29.59,North,349,13.0,32.0,84,0.00,,,0.00,WUHU216DAVISVP2,2013-11-23 19:01:00,
2013-11-23 14:02:00,26.8,22.3,29.59,NW,325,16.0,32.0,83,0.00,,,0.00,WUHU216DAVISVP2,2013-11-23 19:02:00,
2013-11-23 14:03:00,26.9,22.4,29.59,North,8,12.0,32.0,83,0.00,,,0.00,WUHU216DAVISVP2,2013-11-23 19:03:00,
2013-11-23 14:04:00,27.0,22.5,29.59,North,8,12.0,29.0,83,0.00,,,0.00,WUHU216DAVISVP2,2013-11-23 19:04:00,
2013-11-23 14:05:00,27.0,22.2,29.59,North,8,24.0,26.0,82,0.00,,,0.00,WUHU216DAVISVP2,2013-11-23 19:05:00,
2013-11-23 14:06:00,27.0,21.9,29.59,NNW,339,18.0,26.0,81,0.00,,,0.00,WUHU216DAVISVP2,2013-11-23 19:06:00,
2013-11-23 14:07:00,27.0,21.7,29.59,North,359,23.0,26.0,80,0.00,,,0.00,WUHU216DAVISVP2,2013-11-23 19:07:00,
2013-11-23 14:08:00,27.0,21.4,29.59,North,354,14.0,27.0,79,0.00,,,0.00,WUHU216DAVISVP2,2013-11-23 19:08:00,
2013-11-23 14:09:00,27.0,21.4,29.59,NNW,345,29.0,29.0,79,0.00,,,0.00,WUHU216DAVISVP2,2013-11-23 19:09:00,
2013-11-23 14:11:00,27.0,21.1,29.59,NNE,12,14.0,29.0,78,0.00,,,0.00,WUHU216DAVISVP2,2013-11-23 19:11:00,
2013-11-23 14:12:00,27.0,21.1,29.59,NNW,331,23.0,29.0,78,0.00,,,0.00,WUHU216DAVISVP2,2013-11-23 19:12:00,
2013-11-23 14:13:00,27.0,20.8,29.59,NW,311,13.0,29.0,77,0.00,,,0.00,WUHU216DAVISVP2,2013-11-23 19:13:00,
2013-11-23 14:14:00,27.0,20.8,29.59,North,354,20.0,29.0,77,0.00,,,0.00,WUHU216DAVISVP2,2013-11-23 19:14:00,
2013-11-23 14:16:00,26.9,20.4,29.59,North,359,16.0,29.0,76,0.00,,,0.00,WUHU216DAVISVP2,2013-11-23 19:16:00,
2013-11-23 14:17:00,26.9,20.4,29.59,NNW,331,27.0,29.0,76,0.00,,,0.00,WUHU216DAVISVP2,2013-11-23 19:17:00,
2013-11-23 14:18:00,27.0,20.5,29.59,NNE,24,12.0,29.0,76,0.00,,,0.00,WUHU216DAVISVP2,2013-11-23 19:18:00,
2013-11-23 14:20:00,26.9,20.4,29.59,NNW,347,23.0,29.0,76,0.00,,,0.00,WUHU216DAVISVP2,2013-11-23 19:20:00,
2013-11-23 14:21:00,26.9,20.4,29.59,North,359,16.0,29.0,76,0.00,,,0.00,WUHU216DAVISVP2,2013-11-23 19:21:00,
2013-11-23 14:22:00,26.9,20.1,29.59,NNW,343,12.0,29.0,75,0.00,,,0.00,WUHU216DAVISVP2,2013-11-23 19:22:00,
2013-11-23 14:23:00,26.9,20.1,29.59,NNW,345,19.0,29.0,75,0.00,,,0.00,WUHU216DAVISVP2,2013-11-23 19:23:00,
2013-11-23 14:25:00,27.0,20.5,29.59,NNE,18,18.0,29.0,76,0.00,,,0.00,WUHU216DAVISVP2,2013-11-23 19:25:00,
2013-11-23 14:26:00,27.0,20.5,29.59,NNW,330,13.0,29.0,76,0.00,,,0.00,WUHU216DAVISVP2,2013-11-23 19:26:00,
2013-11-23 14:27:00,27.1,20.6,29.59,North,359,9.0,29.0,76,0.00,,,0.00,WUHU216DAVISVP2,2013-11-23 19:27:00,
2013-11-23 14:28:00,27.3,20.8,29.59,NW,318,12.0,27.0,76,0.00,,,0.00,WUHU216DAVISVP2,2013-11-23 19:28:00,
2013-11-23 14:30:00,27.5,20.7,29.59,NNW,339,16.0,27.0,75,0.00,,,0.00,WUHU216DAVISVP2,2013-11-23 19:30:00,
2013-11-23 14:31:00,27.6,20.7,29.59,NNW,334,16.0,27.0,75,0.00,,,0.00,WUHU216DAVISVP2,2013-11-23 19:31:00,
2013-11-23 14:32:00,27.6,20.4,29.59,North,359,15.0,27.0,74,0.00,,,0.00,WUHU216DAVISVP2,2013-11-23 19:32:00,
2013-11-23 14:33:00,27.7,20.5,29.59,NNW,328,14.0,27.0,74,0.00,,,0.00,WUHU216DAVISVP2,2013-11-23 19:33:00,
2013-11-23 14:34:00,27.7,19.9,29.59,North,354,14.0,27.0,72,0.00,,,0.00,WUHU216DAVISVP2,2013-11-23 19:34:00,
2013-11-23 14:36:00,27.8,19.7,29.59,NNW,341,22.0,25.0,71,0.00,,,0.00,WUHU216DAVISVP2,2013-11-23 19:36:00,
2013-11-23 14:38:00,27.6,19.5,29.59,NNW,337,14.0,25.0,71,0.00,,,0.00,WUHU216DAVISVP2,2013-11-23 19:38:00,
2013-11-23 14:39:00,27.5,19.4,29.59,NNW,335,10.0,25.0,71,0.00,,,0.00,WUHU216DAVISVP2,2013-11-23 19:39:00,
2013-11-23 14:41:00,27.8,20.0,29.60,NW,320,16.0,25.0,72,0.00,,,0.00,WUHU216DAVISVP2,2013-11-23 19:41:00,
2013-11-23 14:43:00,27.8,19.3,29.59,NNW,327,25.0,26.0,70,0.00,,,0.00,WUHU216DAVISVP2,2013-11-23 19:43:00,
2013-11-23 14:44:00,27.7,19.2,29.60,NNW,340,20.0,26.0,70,0.00,,,0.00,WUHU216DAVISVP2,2013-11-23 19:44:00,
2013-11-23 14:47:00,27.6,19.5,29.60,NNW,330,21.0,26.0,71,0.00,,,0.00,WUHU216DAVISVP2,2013-11-23 19:47:00,
2013-11-23 14:48:00,27.5,19.1,29.60,NW,324,14.0,26.0,70,0.00,,,0.00,WUHU216DAVISVP2,2013-11-23 19:48:00,
2013-11-23 14:49:00,27.5,19.1,29.60,NNW,345,11.0,26.0,70,0.00,,,0.00,WUHU216DAVISVP2,2013-11-23 19:49:00,
2013-11-23 14:52:00,27.4,19.6,29.60,NNW,334,14.0,26.0,72,0.00,,,0.00,WUHU216DAVISVP2,2013-11-23 19:52:00,
2013-11-23 14:53:00,27.3,19.5,29.60,NNW,345,9.0,26.0,72,0.00,,,0.00,WUHU216DAVISVP2,2013-11-23 19:53:00,
2013-11-23 14:54:00,27.3,19.8,29.60,NNW,348,9.0,26.0,73,0.00,,,0.00,WUHU216DAVISVP2,2013-11-23 19:54:00,
2013-11-23 14:55:00,27.2,19.7,29.60,NNW,347,18.0,26.0,73,0.00,,,0.00,WUHU216DAVISVP2,2013-11-23 19:55:00,
2013-11-23 14:57:00,27.2,19.7,29.60,North,354,10.0,26.0,73,0.00,,,0.00,WUHU216DAVISVP2,2013-11-23 19:57:00,
2013-11-23 14:58:00,27.2,19.7,29.60,North,359,9.0,26.0,73,0.00,,,0.00,WUHU216DAVISVP2,2013-11-23 19:58:00,
2013-11-23 14:59:00,27.1,19.6,29.60,North,359,15.0,26.0,73,0.00,,,0.00,WUHU216DAVISVP2,2013-11-23 19:59:00,
2013-11-23 15:00:00,27.1,19.6,29.60,NNW,332,21.0,26.0,73,0.00,,,0.00,WUHU216DAVISVP2,2013-11-23 20:00:00,
2013-11-23 15:01:00,27.1,19.3,29.60,NW,322,16.0,26.0,72,0.00,,,0.00,WUHU216DAVISVP2,2013-11-23 20:01:00,
2013-11-23 15:02:00,27.0,18.9,29.60,NNW,334,22.0,24.0,71,0.00,,,0.00,WUHU216DAVISVP2,2013-11-23 20:02:00,
2013-11-23 15:03:00,27.0,18.9,29.60,NNW,333,19.0,26.0,71,0.00,,,0.00,WUHU216DAVISVP2,2013-11-23 20:03:00,
2013-11-23 15:04:00,27.0,18.9,29.60,North,359,13.0,26.0,71,0.00,,,0.00,WUHU216DAVISVP2,2013-11-23 20:04:00,
2013-11-23 15:05:00,27.0,18.9,29.60,NNW,338,15.0,26.0,71,0.00,,,0.00,WUHU216DAVISVP2,2013-11-23 20:05:00,
2013-11-23 15:06:00,27.1,19.3,29.60,NNW,328,23.0,26.0,72,0.00,,,0.00,WUHU216DAVISVP2,2013-11-23 20:06:00,
2013-11-23 15:08:00,27.0,19.5,29.60,NW,321,13.0,27.0,73,0.00,,,0.00,WUHU216DAVISVP2,2013-11-23 20:08:00,
2013-11-23 15:09:00,27.1,19.6,29.60,North,354,13.0,27.0,73,0.00,,,0.00,WUHU216DAVISVP2,2013-11-23 20:09:00,
2013-11-23 15:10:00,27.2,20.0,29.60,NNW,348,11.0,27.0,74,0.00,,,0.00,WUHU216DAVISVP2,2013-11-23 20:10:00,
2013-11-23 15:12:00,27.3,19.8,29.61,NNW,341,13.0,27.0,73,0.00,,,0.00,WUHU216DAVISVP2,2013-11-23 20:12:00,
2013-11-23 15:13:00,27.3,19.5,29.61,North,10,15.0,27.0,72,0.00,,,0.00,WUHU216DAVISVP2,2013-11-23 20:13:00,
2013-11-23 15:14:00,27.2,19.4,29.61,North,349,20.0,27.0,72,0.00,,,0.00,WUHU216DAVISVP2,2013-11-23 20:14:00,
2013-11-23 15:15:00,27.2,19.0,29.61,NNW,347,13.0,27.0,71,0.00,,,0.00,WUHU216DAVISVP2,2013-11-23 20:15:00,
2013-11-23 15:16:00,27.2,18.7,29.61,NNW,347,23.0,28.0,70,0.00,,,0.00,WUHU216DAVISVP2,2013-11-23 20:16:00,
2013-11-23 15:17:00,27.1,18.3,29.61,NNW,344,11.0,28.0,69,0.00,,,0.00,WUHU216DAVISVP2,2013-11-23 20:17:00,
2013-11-23 15:19:00,27.0,18.2,29.61,NNW,341,18.0,28.0,69,0.00,,,0.00,WUHU216DAVISVP2,2013-11-23 20:19:00,
2013-11-23 15:20:00,26.9,18.1,29.61,NNE,12,16.0,28.0,69,0.00,,,0.00,WUHU216DAVISVP2,2013-11-23 20:20:00,
2013-11-23 15:21:00,26.8,18.0,29.61,North,354,10.0,28.0,69,0.00,,,0.00,WUHU216DAVISVP2,2013-11-23 20:21:00,
2013-11-23 15:22:00,26.8,18.0,29.61,NNW,343,21.0,29.0,69,0.00,,,0.00,WUHU216DAVISVP2,2013-11-23 20:22:00,
2013-11-23 15:24:00,26.8,18.0,29.61,North,354,16.0,29.0,69,0.00,,,0.00,WUHU216DAVISVP2,2013-11-23 20:24:00,
2013-11-23 15:25:00,26.9,18.1,29.61,North,4,14.0,29.0,69,0.00,,,0.00,WUHU216DAVISVP2,2013-11-23 20:25:00,
2013-11-23 15:26:00,27.0,18.2,29.61,NNE,25,14.0,29.0,69,0.00,,,0.00,WUHU216DAVISVP2,2013-11-23 20:26:00,
2013-11-23 15:27:00,27.1,18.0,29.61,North,8,16.0,29.0,68,0.00,,,0.00,WUHU216DAVISVP2,2013-11-23 20:27:00,
2013-11-23 15:29:00,27.1,18.0,29.61,NE,34,21.0,29.0,68,0.00,,,0.00,WUHU216DAVISVP2,2013-11-23 20:29:00,
2013-11-23 15:30:00,27.2,18.1,29.61,NNW,343,18.0,29.0,68,0.00,,,0.00,WUHU216DAVISVP2,2013-11-23 20:30:00,
2013-11-23 15:31:00,27.1,18.0,29.61,North,354,16.0,29.0,68,0.00,,,0.00,WUHU216DAVISVP2,2013-11-23 20:31:00,
2013-11-23 15:32:00,27.1,18.0,29.61,NNW,340,15.0,29.0,68,0.00,,,0.00,WUHU216DAVISVP2,2013-11-23 20:32:00,
2013-11-23 15:33:00,27.1,18.0,29.61,North,354,23.0,29.0,68,0.00,,,0.00,WUHU216DAVISVP2,2013-11-23 20:33:00,
2013-11-23 15:34:00,27.0,18.2,29.62,North,354,18.0,29.0,69,0.00,,,0.00,WUHU216DAVISVP2,2013-11-23 20:34:00,
2013-11-23 15:35:00,27.0,18.2,29.61,NNW,345,7.0,29.0,69,0.00,,,0.00,WUHU216DAVISVP2,2013-11-23 20:35:00,
2013-11-23 15:36:00,27.0,18.6,29.62,North,349,16.0,29.0,70,0.00,,,0.00,WUHU216DAVISVP2,2013-11-23 20:36:00,
2013-11-23 15:37:00,27.0,18.6,29.61,NNW,347,14.0,29.0,70,0.00,,,0.00,WUHU216DAVISVP2,2013-11-23 20:37:00,
2013-11-23 15:38:00,27.0,18.6,29.62,NW,313,11.0,29.0,70,0.00,,,0.00,WUHU216DAVISVP2,2013-11-23 20:38:00,
2013-11-23 15:39:00,27.0,18.6,29.62,NNW,345,10.0,29.0,70,0.00,,,0.00,WUHU216DAVISVP2,2013-11-23 20:39:00,
2013-11-23 15:40:00,27.0,18.6,29.62,NNW,333,19.0,29.0,70,0.00,,,0.00,WUHU216DAVISVP2,2013-11-23 20:40:00,
2013-11-23 15:41:00,27.0,18.6,29.62,NW,320,13.0,24.0,70,0.00,,,0.00,WUHU216DAVISVP2,2013-11-23 20:41:00,
2013-11-23 15:42:00,26.9,18.5,29.62,NNW,336,12.0,24.0,70,0.00,,,0.00,WUHU216DAVISVP2,2013-11-23 20:42:00,
2013-11-23 15:43:00,26.8,18.0,29.62,NW,305,15.0,24.0,69,0.00,,,0.00,WUHU216DAVISVP2,2013-11-23 20:43:00,
2013-11-23 15:44:00,26.8,18.4,29.62,North,359,12.0,24.0,70,0.00,,,0.00,WUHU216DAVISVP2,2013-11-23 20:44:00,
2013-11-23 15:45:00,26.7,18.3,29.62,NW,320,15.0,24.0,70,0.00,,,0.00,WUHU216DAVISVP2,2013-11-23 20:45:00,
2013-11-23 15:46:00,26.7,18.3,29.62,NW,325,11.0,24.0,70,0.00,,,0.00,WUHU216DAVISVP2,2013-11-23 20:46:00,
2013-11-23 15:47:00,26.8,18.4,29.62,NNW,340,14.0,24.0,70,0.00,,,0.00,WUHU216DAVISVP2,2013-11-23 20:47:00,
2013-11-23 15:48:00,26.9,18.5,29.62,North,354,12.0,24.0,70,0.00,,,0.00,WUHU216DAVISVP2,2013-11-23 20:48:00,
2013-11-23 15:50:00,26.9,18.5,29.62,North,354,18.0,24.0,70,0.00,,,0.00,WUHU216DAVISVP2,2013-11-23 20:50:00,
2013-11-23 15:51:00,26.9,18.5,29.62,NNW,341,12.0,24.0,70,0.00,,,0.00,WUHU216DAVISVP2,2013-11-23 20:51:00,
2013-11-23 15:52:00,26.9,18.4,29.62,NNW,338,15.0,24.0,70,0.00,,,0.00,WUHU216DAVISVP2,2013-11-23 20:52:00,
2013-11-23 15:53:00,26.9,18.4,29.62,NW,320,20.0,24.0,70,0.00,,,0.00,WUHU216DAVISVP2,2013-11-23 20:53:00,
2013-11-23 15:54:00,26.9,18.4,29.62,NNW,344,14.0,24.0,70,0.00,,,0.00,WUHU216DAVISVP2,2013-11-23 20:54:00,
2013-11-23 15:55:00,26.9,18.1,29.62,North,354,16.0,24.0,69,0.00,,,0.00,WUHU216DAVISVP2,2013-11-23 20:55:00,
2013-11-23 15:56:00,26.9,18.1,29.62,North,354,22.0,25.0,69,0.00,,,0.00,WUHU216DAVISVP2,2013-11-23 20:56:00,
2013-11-23 15:57:00,26.8,18.0,29.63,NNW,338,23.0,25.0,69,0.00,,,0.00,WUHU216DAVISVP2,2013-11-23 20:57:00,
2013-11-23 15:58:00,26.7,17.9,29.63,North,350,16.0,27.0,69,0.00,,,0.00,WUHU216DAVISVP2,2013-11-23 20:58:00,
2013-11-23 16:00:00,26.6,18.1,29.63,North,354,10.0,27.0,70,0.00,,,0.00,WUHU216DAVISVP2,2013-11-23 21:00:00,
2013-11-23 16:01:00,26.5,20.0,29.63,NNE,12,12.0,27.0,76,0.00,,,0.00,WUHU216DAVISVP2,2013-11-23 21:01:00,
2013-11-23 16:02:00,26.3,18.5,29.63,NNW,336,18.0,27.0,72,0.00,,,0.00,WUHU216DAVISVP2,2013-11-23 21:02:00,
2013-11-23 16:03:00,26.2,18.4,29.63,NNW,327,15.0,27.0,72,0.00,,,0.00,WUHU216DAVISVP2,2013-11-23 21:03:00,
2013-11-23 16:05:00,26.0,18.6,29.63,North,349,14.0,27.0,73,0.00,,,0.00,WUHU216DAVISVP2,2013-11-23 21:05:00,
2013-11-23 16:06:00,25.8,18.7,29.63,NNW,328,20.0,27.0,74,0.00,,,0.00,WUHU216DAVISVP2,2013-11-23 21:06:00,
2013-11-23 16:07:00,25.8,18.7,29.63,NNW,334,21.0,27.0,74,0.00,,,0.00,WUHU216DAVISVP2,2013-11-23 21:07:00,
2013-11-23 16:08:00,25.6,18.8,29.63,NNW,345,13.0,27.0,75,0.00,,,0.00,WUHU216DAVISVP2,2013-11-23 21:08:00,
2013-11-23 16:10:00,25.6,19.1,29.63,North,359,9.0,27.0,76,0.00,,,0.00,WUHU216DAVISVP2,2013-11-23 21:10:00,
2013-11-23 16:11:00,25.6,19.1,29.63,NW,324,10.0,27.0,76,0.00,,,0.00,WUHU216DAVISVP2,2013-11-23 21:11:00,
2013-11-23 16:12:00,25.6,19.4,29.63,NNW,335,14.0,27.0,77,0.00,,,0.00,WUHU216DAVISVP2,2013-11-23 21:12:00,
2013-11-23 16:13:00,25.6,19.4,29.63,NNW,346,12.0,27.0,77,0.00,,,0.00,WUHU216DAVISVP2,2013-11-23 21:13:00,
2013-11-23 16:15:00,25.5,19.6,29.64,NW,326,14.0,27.0,78,0.00,,,0.00,WUHU216DAVISVP2,2013-11-23 21:15:00,
2013-11-23 16:17:00,25.4,19.5,29.63,North,4,15.0,25.0,78,0.00,,,0.00,WUHU216DAVISVP2,2013-11-23 21:17:00,
2013-11-23 16:18:00,25.3,19.4,29.64,North,354,12.0,25.0,78,0.00,,,0.00,WUHU216DAVISVP2,2013-11-23 21:18:00,
2013-11-23 16:20:00,25.2,19.6,29.64,NNW,328,11.0,25.0,79,0.00,,,0.00,WUHU216DAVISVP2,2013-11-23 21:20:00,
2013-11-23 16:22:00,25.1,19.5,29.64,NNW,348,13.0,25.0,79,0.00,,,0.00,WUHU216DAVISVP2,2013-11-23 21:22:00,
2013-11-23 16:23:00,25.1,19.5,29.64,NNW,348,15.0,25.0,79,0.00,,,0.00,WUHU216DAVISVP2,2013-11-23 21:23:00,
2013-11-23 16:25:00,25.1,19.2,29.64,North,359,12.0,26.0,78,0.00,,,0.00,WUHU216DAVISVP2,2013-11-23 21:25:00,
2013-11-23 16:26:00,25.1,19.2,29.64,North,354,10.0,26.0,78,0.00,,,0.00,WUHU216DAVISVP2,2013-11-23 21:26:00,
2013-11-23 16:27:00,25.1,19.2,29.64,NNW,342,12.0,26.0,78,0.00,,,0.00,WUHU216DAVISVP2,2013-11-23 21:27:00,
2013-11-23 16:28:00,25.1,18.9,29.64,NNW,339,19.0,26.0,77,0.00,,,0.00,WUHU216DAVISVP2,2013-11-23 21:28:00,
2013-11-23 16:31:00,25.1,18.6,29.64,NNE,12,15.0,26.0,76,0.00,,,0.00,WUHU216DAVISVP2,2013-11-23 21:31:00,
2013-11-23 16:32:00,25.1,18.6,29.64,NNW,337,14.0,26.0,76,0.00,,,0.00,WUHU216DAVISVP2,2013-11-23 21:32:00,
2013-11-23 16:33:00,25.2,18.7,29.64,North,349,21.0,26.0,76,0.00,,,0.00,WUHU216DAVISVP2,2013-11-23 21:33:00,
2013-11-23 16:34:00,25.2,18.7,29.64,North,349,21.0,26.0,76,0.00,,,0.00,WUHU216DAVISVP2,2013-11-23 21:34:00,
2013-11-23 16:36:00,25.1,18.3,29.64,NNW,340,26.0,28.0,75,0.00,,,0.00,WUHU216DAVISVP2,2013-11-23 21:36:00,
2013-11-23 16:38:00,25.1,18.3,29.65,North,8,16.0,28.0,75,0.00,,,0.00,WUHU216DAVISVP2,2013-11-23 21:38:00,
2013-11-23 16:39:00,25.1,18.3,29.65,NNW,339,18.0,28.0,75,0.00,,,0.00,WUHU216DAVISVP2,2013-11-23 21:39:00,
2013-11-23 16:41:00,25.2,18.7,29.65,North,359,20.0,28.0,76,0.00,,,0.00,WUHU216DAVISVP2,2013-11-23 21:41:00,
2013-11-23 16:42:00,25.2,18.7,29.65,North,359,22.0,28.0,76,0.00,,,0.00,WUHU216DAVISVP2,2013-11-23 21:42:00,
2013-11-23 16:43:00,25.1,18.3,29.65,North,354,18.0,28.0,75,0.00,,,0.00,WUHU216DAVISVP2,2013-11-23 21:43:00,
2013-11-23 16:44:00,25.1,18.3,29.65,NNW,347,18.0,28.0,75,0.00,,,0.00,WUHU216DAVISVP2,2013-11-23 21:44:00,
2013-11-23 16:45:00,25.1,18.3,29.65,North,4,15.0,28.0,75,0.00,,,0.00,WUHU216DAVISVP2,2013-11-23 21:45:00,
2013-11-23 16:47:00,25.1,18.3,29.65,NNW,337,13.0,28.0,75,0.00,,,0.00,WUHU216DAVISVP2,2013-11-23 21:47:00,
2013-11-23 16:49:00,25.1,18.3,29.65,NW,316,16.0,28.0,75,0.00,,,0.00,WUHU216DAVISVP2,2013-11-23 21:49:00,
2013-11-23 16:52:00,25.0,17.9,29.65,NNW,339,22.0,28.0,74,0.00,,,0.00,WUHU216DAVISVP2,2013-11-23 21:52:00,
2013-11-23 16:54:00,24.9,17.8,29.66,NNW,343,12.0,27.0,74,0.00,,,0.00,WUHU216DAVISVP2,2013-11-23 21:54:00,
2013-11-23 16:55:00,25.0,18.2,29.66,North,354,7.0,24.0,75,0.00,,,0.00,WUHU216DAVISVP2,2013-11-23 21:55:00,
2013-11-23 16:57:00,24.9,18.1,29.66,NNW,328,14.0,24.0,75,0.00,,,0.00,WUHU216DAVISVP2,2013-11-23 21:57:00,
2013-11-23 16:59:00,24.9,18.1,29.66,NNW,329,11.0,24.0,75,0.00,,,0.00,WUHU216DAVISVP2,2013-11-23 21:59:00,
2013-11-23 17:00:00,24.8,18.0,29.66,NW,320,14.0,24.0,75,0.00,,,0.00,WUHU216DAVISVP2,2013-11-23 22:00:00,
2013-11-23 17:01:00,24.8,18.3,29.66,NNW,341,15.0,24.0,76,0.00,,,0.00,WUHU216DAVISVP2,2013-11-23 22:01:00,
2013-11-23 17:02:00,24.8,18.0,29.66,NNW,328,14.0,24.0,75,0.00,,,0.00,WUHU216DAVISVP2,2013-11-23 22:02:00,
2013-11-23 17:04:00,24.7,18.2,29.66,NW,314,16.0,24.0,76,0.00,,,0.00,WUHU216DAVISVP2,2013-11-23 22:04:00,
2013-11-23 17:05:00,24.7,18.2,29.66,NNW,331,19.0,24.0,76,0.00,,,0.00,WUHU216DAVISVP2,2013-11-23 22:05:00,
2013-11-23 17:06:00,24.6,17.8,29.66,North,354,12.0,24.0,75,0.00,,,0.00,WUHU216DAVISVP2,2013-11-23 22:06:00,
2013-11-23 17:07:00,24.6,17.8,29.66,North,354,13.0,24.0,75,0.00,,,0.00,WUHU216DAVISVP2,2013-11-23 22:07:00,
2013-11-23 17:08:00,24.5,17.7,29.66,NW,324,15.0,24.0,75,0.00,,,0.00,WUHU216DAVISVP2,2013-11-23 22:08:00,
2013-11-23 17:09:00,24.5,17.7,29.66,NNW,328,12.0,23.0,75,0.00,,,0.00,WUHU216DAVISVP2,2013-11-23 22:09:00,
2013-11-23 17:10:00,24.5,17.7,29.66,NW,326,16.0,23.0,75,0.00,,,0.00,WUHU216DAVISVP2,2013-11-23 22:10:00,
2013-11-23 17:12:00,24.5,17.7,29.66,NW,325,13.0,23.0,75,0.00,,,0.00,WUHU216DAVISVP2,2013-11-23 22:12:00,
2013-11-23 17:13:00,24.5,17.4,29.66,NNW,339,11.0,23.0,74,0.00,,,0.00,WUHU216DAVISVP2,2013-11-23 22:13:00,
2013-11-23 17:14:00,24.5,17.7,29.66,NW,320,13.0,23.0,75,0.00,,,0.00,WUHU216DAVISVP2,2013-11-23 22:14:00,
2013-11-23 17:16:00,24.5,17.4,29.66,NW,325,20.0,25.0,74,0.01,,,0.01,WUHU216DAVISVP2,2013-11-23 22:16:00,
2013-11-23 17:17:00,24.5,17.4,29.66,NNW,336,16.0,25.0,74,0.01,,,0.01,WUHU216DAVISVP2,2013-11-23 22:17:00,
2013-11-23 17:18:00,24.5,17.4,29.66,NNW,348,18.0,25.0,74,0.01,,,0.01,WUHU216DAVISVP2,2013-11-23 22:18:00,
2013-11-23 17:20:00,24.5,17.1,29.66,North,349,22.0,25.0,73,0.01,,,0.01,WUHU216DAVISVP2,2013-11-23 22:20:00,
2013-11-23 17:21:00,24.4,17.0,29.66,NNW,334,16.0,25.0,73,0.01,,,0.01,WUHU216DAVISVP2,2013-11-23 22:21:00,
2013-11-23 17:22:00,24.4,17.0,29.66,NNW,332,19.0,28.0,73,0.01,,,0.01,WUHU216DAVISVP2,2013-11-23 22:22:00,
2013-11-23 17:23:00,24.4,17.0,29.66,NNW,327,16.0,28.0,73,0.01,,,0.01,WUHU216DAVISVP2,2013-11-23 22:23:00,
2013-11-23 17:24:00,24.4,17.0,29.66,NNW,345,10.0,28.0,73,0.01,,,0.01,WUHU216DAVISVP2,2013-11-23 22:24:00,
2013-11-23 17:26:00,24.3,17.2,29.66,NNE,16,9.0,28.0,74,0.01,,,0.01,WUHU216DAVISVP2,2013-11-23 22:26:00,
2013-11-23 17:27:00,24.3,17.2,29.66,NW,318,11.0,28.0,74,0.01,,,0.01,WUHU216DAVISVP2,2013-11-23 22:27:00,
2013-11-23 17:28:00,24.3,17.2,29.66,NNW,345,8.0,28.0,74,0.01,,,0.01,WUHU216DAVISVP2,2013-11-23 22:28:00,
2013-11-23 17:29:00,24.2,17.5,29.67,NNW,341,19.0,28.0,75,0.01,,,0.01,WUHU216DAVISVP2,2013-11-23 22:29:00,
2013-11-23 17:31:00,24.2,17.5,29.67,NNW,337,18.0,28.0,75,0.01,,,0.01,WUHU216DAVISVP2,2013-11-23 22:31:00,
2013-11-23 17:32:00,24.2,17.5,29.67,NNW,335,20.0,28.0,75,0.01,,,0.01,WUHU216DAVISVP2,2013-11-23 22:32:00,
2013-11-23 17:33:00,24.2,17.5,29.67,North,359,13.0,28.0,75,0.01,,,0.01,WUHU216DAVISVP2,2013-11-23 22:33:00,
2013-11-23 17:35:00,24.1,17.4,29.67,NNE,16,20.0,28.0,75,0.01,,,0.01,WUHU216DAVISVP2,2013-11-23 22:35:00,
2013-11-23 17:37:00,24.0,17.6,29.67,North,359,15.0,28.0,76,0.01,,,0.01,WUHU216DAVISVP2,2013-11-23 22:37:00,
2013-11-23 17:38:00,24.0,17.6,29.67,North,354,15.0,28.0,76,0.01,,,0.01,WUHU216DAVISVP2,2013-11-23 22:38:00,
2013-11-23 17:39:00,24.0,17.6,29.67,North,354,10.0,28.0,76,0.01,,,0.01,WUHU216DAVISVP2,2013-11-23 22:39:00,
2013-11-23 17:40:00,24.0,17.6,29.67,North,354,15.0,24.0,76,0.01,,,0.01,WUHU216DAVISVP2,2013-11-23 22:40:00,
2013-11-23 17:42:00,23.9,17.5,29.67,NNW,336,15.0,24.0,76,0.01,,,0.01,WUHU216DAVISVP2,2013-11-23 22:42:00,
2013-11-23 17:43:00,23.9,17.5,29.67,NNW,338,18.0,24.0,76,0.01,,,0.01,WUHU216DAVISVP2,2013-11-23 22:43:00,
2013-11-23 17:44:00,23.9,17.5,29.67,North,354,14.0,24.0,76,0.01,,,0.01,WUHU216DAVISVP2,2013-11-23 22:44:00,
2013-11-23 17:46:00,23.8,17.4,29.67,North,349,13.0,24.0,76,0.01,,,0.01,WUHU216DAVISVP2,2013-11-23 22:46:00,
2013-11-23 17:47:00,23.8,17.4,29.67,North,354,13.0,24.0,76,0.01,,,0.01,WUHU216DAVISVP2,2013-11-23 22:47:00,
2013-11-23 17:49:00,23.8,17.1,29.67,North,354,23.0,25.0,75,0.01,,,0.01,WUHU216DAVISVP2,2013-11-23 22:49:00,
2013-11-23 17:51:00,23.8,16.8,29.67,NNE,14,14.0,25.0,74,0.01,,,0.01,WUHU216DAVISVP2,2013-11-23 22:51:00,
2013-11-23 17:52:00,23.8,16.8,29.67,North,354,12.0,25.0,74,0.01,,,0.01,WUHU216DAVISVP2,2013-11-23 22:52:00,
2013-11-23 17:54:00,23.8,16.8,29.67,North,354,15.0,25.0,74,0.01,,,0.01,WUHU216DAVISVP2,2013-11-23 22:54:00,
2013-11-23 17:56:00,23.9,16.9,29.67,NNW,344,11.0,25.0,74,0.01,,,0.01,WUHU216DAVISVP2,2013-11-23 22:56:00,
2013-11-23 17:57:00,23.9,16.9,29.67,North,4,13.0,25.0,74,0.01,,,0.01,WUHU216DAVISVP2,2013-11-23 22:57:00,
2013-11-23 17:58:00,23.9,16.9,29.67,North,354,15.0,25.0,74,0.01,,,0.01,WUHU216DAVISVP2,2013-11-23 22:58:00,
2013-11-23 17:59:00,23.9,16.9,29.67,NNE,17,12.0,25.0,74,0.01,,,0.01,WUHU216DAVISVP2,2013-11-23 22:59:00,
2013-11-23 18:00:00,23.9,16.9,29.67,NNW,332,20.0,25.0,74,0.01,,,0.01,WUHU216DAVISVP2,2013-11-23 23:00:00,
2013-11-23 18:01:00,23.9,16.5,29.68,NNW,343,14.0,25.0,73,0.01,,,0.01,WUHU216DAVISVP2,2013-11-23 23:01:00,
2013-11-23 18:03:00,23.9,16.5,29.67,North,4,15.0,25.0,73,0.01,,,0.01,WUHU216DAVISVP2,2013-11-23 23:03:00,
2013-11-23 18:05:00,23.9,16.5,29.68,NNW,341,16.0,25.0,73,0.01,,,0.01,WUHU216DAVISVP2,2013-11-23 23:05:00,
2013-11-23 18:07:00,23.8,16.4,29.68,NNW,348,15.0,26.0,73,0.01,,,0.01,WUHU216DAVISVP2,2013-11-23 23:07:00,
2013-11-23 18:08:00,23.8,16.4,29.68,NNW,342,21.0,26.0,73,0.01,,,0.01,WUHU216DAVISVP2,2013-11-23 23:08:00,
2013-11-23 18:09:00,23.8,16.4,29.68,NNE,12,13.0,26.0,73,0.01,,,0.01,WUHU216DAVISVP2,2013-11-23 23:09:00,
2013-11-23 18:10:00,23.8,16.4,29.68,North,350,14.0,26.0,73,0.01,,,0.01,WUHU216DAVISVP2,2013-11-23 23:10:00,
2013-11-23 18:12:00,23.7,16.4,29.68,NNW,338,15.0,26.0,73,0.01,,,0.01,WUHU216DAVISVP2,2013-11-23 23:12:00,
2013-11-23 18:13:00,23.7,16.7,29.68,North,354,10.0,26.0,74,0.01,,,0.01,WUHU216DAVISVP2,2013-11-23 23:13:00,
2013-11-23 18:14:00,23.6,16.6,29.69,NNE,29,12.0,26.0,74,0.01,,,0.01,WUHU216DAVISVP2,2013-11-23 23:14:00,
2013-11-23 18:15:00,23.6,16.9,29.69,NNW,341,12.0,26.0,75,0.01,,,0.01,WUHU216DAVISVP2,2013-11-23 23:15:00,
2013-11-23 18:17:00,23.6,16.9,29.69,North,359,16.0,26.0,75,0.00,,,0.01,WUHU216DAVISVP2,2013-11-23 23:17:00,
2013-11-23 18:18:00,23.5,16.8,29.69,North,359,11.0,26.0,75,0.00,,,0.01,WUHU216DAVISVP2,2013-11-23 23:18:00,
2013-11-23 18:19:00,23.5,16.8,29.69,NNW,341,11.0,26.0,75,0.00,,,0.01,WUHU216DAVISVP2,2013-11-23 23:19:00,
2013-11-23 18:20:00,23.6,17.2,29.69,NNW,328,19.0,26.0,76,0.00,,,0.01,WUHU216DAVISVP2,2013-11-23 23:20:00,
2013-11-23 18:22:00,23.6,17.2,29.69,NNW,341,12.0,26.0,76,0.00,,,0.01,WUHU216DAVISVP2,2013-11-23 23:22:00,
2013-11-23 18:23:00,23.6,17.2,29.69,NNW,337,10.0,26.0,76,0.00,,,0.01,WUHU216DAVISVP2,2013-11-23 23:23:00,
2013-11-23 18:24:00,23.6,17.2,29.68,NNW,343,14.0,26.0,76,0.00,,,0.01,WUHU216DAVISVP2,2013-11-23 23:24:00,
2013-11-23 18:25:00,23.6,17.2,29.68,NNW,327,14.0,24.0,76,0.00,,,0.01,WUHU216DAVISVP2,2013-11-23 23:25:00,
2013-11-23 18:26:00,23.6,17.2,29.69,NNW,336,12.0,24.0,76,0.00,,,0.01,WUHU216DAVISVP2,2013-11-23 23:26:00,
2013-11-23 18:28:00,23.5,17.1,29.69,NNW,343,10.0,24.0,76,0.00,,,0.01,WUHU216DAVISVP2,2013-11-23 23:28:00,
2013-11-23 18:29:00,23.6,17.5,29.69,NNW,338,11.0,24.0,77,0.00,,,0.01,WUHU216DAVISVP2,2013-11-23 23:29:00,
2013-11-23 18:30:00,23.6,17.5,29.69,NNW,332,7.0,24.0,77,0.00,,,0.01,WUHU216DAVISVP2,2013-11-23 23:30:00,
2013-11-23 18:31:00,23.6,17.5,29.69,NNW,340,13.0,24.0,77,0.00,,,0.01,WUHU216DAVISVP2,2013-11-23 23:31:00,
2013-11-23 18:33:00,23.6,17.5,29.69,North,354,10.0,24.0,77,0.00,,,0.01,WUHU216DAVISVP2,2013-11-23 23:33:00,
2013-11-23 18:35:00,23.6,17.5,29.69,North,8,19.0,24.0,77,0.00,,,0.01,WUHU216DAVISVP2,2013-11-23 23:35:00,
2013-11-23 18:36:00,23.6,17.5,29.69,NNW,348,9.0,24.0,77,0.00,,,0.01,WUHU216DAVISVP2,2013-11-23 23:36:00,
2013-11-23 18:38:00,23.6,17.5,29.69,NNW,343,13.0,24.0,77,0.00,,,0.01,WUHU216DAVISVP2,2013-11-23 23:38:00,
2013-11-23 18:40:00,23.6,17.8,29.69,NNW,339,12.0,22.0,78,0.00,,,0.01,WUHU216DAVISVP2,2013-11-23 23:40:00,
2013-11-23 18:41:00,23.6,17.5,29.69,NNW,328,12.0,22.0,77,0.00,,,0.01,WUHU216DAVISVP2,2013-11-23 23:41:00,
2013-11-23 18:43:00,23.5,17.4,29.69,North,4,13.0,22.0,77,0.00,,,0.01,WUHU216DAVISVP2,2013-11-23 23:43:00,
2013-11-23 18:44:00,23.5,17.4,29.69,NNW,344,11.0,22.0,77,0.00,,,0.01,WUHU216DAVISVP2,2013-11-23 23:44:00,
2013-11-23 18:45:00,23.5,17.4,29.69,NNW,337,16.0,22.0,77,0.00,,,0.01,WUHU216DAVISVP2,2013-11-23 23:45:00,
2013-11-23 18:46:00,23.5,17.4,29.69,NNW,334,19.0,22.0,77,0.00,,,0.01,WUHU216DAVISVP2,2013-11-23 23:46:00,
2013-11-23 18:48:00,23.5,17.1,29.69,North,4,13.0,22.0,76,0.00,,,0.01,WUHU216DAVISVP2,2013-11-23 23:48:00,
2013-11-23 18:49:00,23.5,17.1,29.69,North,359,10.0,22.0,76,0.00,,,0.01,WUHU216DAVISVP2,2013-11-23 23:49:00,
2013-11-23 18:50:00,23.4,17.0,29.69,North,9,10.0,22.0,76,0.00,,,0.01,WUHU216DAVISVP2,2013-11-23 23:50:00,
2013-11-23 18:51:00,23.4,17.0,29.69,North,350,12.0,22.0,76,0.00,,,0.01,WUHU216DAVISVP2,2013-11-23 23:51:00,
2013-11-23 18:52:00,23.4,17.0,29.69,North,349,13.0,21.0,76,0.00,,,0.01,WUHU216DAVISVP2,2013-11-23 23:52:00,
2013-11-23 18:54:00,23.4,17.0,29.69,North,354,10.0,21.0,76,0.00,,,0.01,WUHU216DAVISVP2,2013-11-23 23:54:00,
2013-11-23 18:56:00,23.4,17.3,29.69,North,349,12.0,21.0,77,0.00,,,0.01,WUHU216DAVISVP2,2013-11-23 23:56:00,
2013-11-23 18:57:00,23.4,17.3,29.69,North,4,11.0,21.0,77,0.00,,,0.01,WUHU216DAVISVP2,2013-11-23 23:57:00,
2013-11-23 18:59:00,23.3,17.2,29.69,North,349,9.0,21.0,77,0.00,,,0.01,WUHU216DAVISVP2,2013-11-23 23:59:00,
2013-11-23 19:00:00,23.3,17.2,29.69,North,4,12.0,21.0,77,0.00,,,0.01,WUHU216DAVISVP2,2013-11-24 00:00:00,
2013-11-23 19:01:00,23.3,17.2,29.70,NNW,347,8.0,21.0,77,0.00,,,0.01,WUHU216DAVISVP2,2013-11-24 00:01:00,
2013-11-23 19:02:00,23.3,17.2,29.70,North,350,11.0,21.0,77,0.00,,,0.01,WUHU216DAVISVP2,2013-11-24 00:02:00,
2013-11-23 19:04:00,23.2,17.1,29.69,North,354,9.0,21.0,77,0.00,,,0.01,WUHU216DAVISVP2,2013-11-24 00:04:00,
2013-11-23 19:05:00,23.2,17.1,29.69,NNW,345,9.0,21.0,77,0.00,,,0.01,WUHU216DAVISVP2,2013-11-24 00:05:00,
2013-11-23 19:06:00,23.1,17.0,29.70,NW,324,10.0,18.0,77,0.00,,,0.01,WUHU216DAVISVP2,2013-11-24 00:06:00,
2013-11-23 19:07:00,23.1,17.0,29.70,North,354,11.0,18.0,77,0.00,,,0.01,WUHU216DAVISVP2,2013-11-24 00:07:00,
2013-11-23 19:08:00,23.1,17.0,29.70,NNW,343,16.0,18.0,77,0.00,,,0.01,WUHU216DAVISVP2,2013-11-24 00:08:00,
2013-11-23 19:09:00,23.1,17.0,29.70,North,359,8.0,19.0,77,0.00,,,0.01,WUHU216DAVISVP2,2013-11-24 00:09:00,
2013-11-23 19:10:00,23.0,16.9,29.70,NNW,328,9.0,19.0,77,0.00,,,0.01,WUHU216DAVISVP2,2013-11-24 00:10:00,
2013-11-23 19:11:00,23.0,16.9,29.70,NNW,347,19.0,19.0,77,0.00,,,0.01,WUHU216DAVISVP2,2013-11-24 00:11:00,
2013-11-23 19:12:00,23.0,16.9,29.70,NNW,328,16.0,19.0,77,0.00,,,0.01,WUHU216DAVISVP2,2013-11-24 00:12:00,
2013-11-23 19:13:00,23.0,16.9,29.70,North,354,10.0,19.0,77,0.00,,,0.01,WUHU216DAVISVP2,2013-11-24 00:13:00,
2013-11-23 19:15:00,22.9,16.8,29.70,NW,319,12.0,19.0,77,0.00,,,0.01,WUHU216DAVISVP2,2013-11-24 00:15:00,
2013-11-23 19:16:00,22.9,16.8,29.70,North,359,11.0,19.0,77,0.00,,,0.01,WUHU216DAVISVP2,2013-11-24 00:16:00,
2013-11-23 19:17:00,22.9,16.8,29.70,NNW,340,11.0,19.0,77,0.00,,,0.01,WUHU216DAVISVP2,2013-11-24 00:17:00,
2013-11-23 19:18:00,22.9,16.8,29.70,NNW,347,11.0,22.0,77,0.00,,,0.01,WUHU216DAVISVP2,2013-11-24 00:18:00,
2013-11-23 19:19:00,22.9,16.5,29.70,North,359,13.0,22.0,76,0.00,,,0.01,WUHU216DAVISVP2,2013-11-24 00:19:00,
2013-11-23 19:20:00,22.9,16.5,29.70,NNE,12,13.0,22.0,76,0.00,,,0.01,WUHU216DAVISVP2,2013-11-24 00:20:00,
2013-11-23 19:22:00,22.8,16.4,29.70,North,349,13.0,22.0,76,0.00,,,0.01,WUHU216DAVISVP2,2013-11-24 00:22:00,
2013-11-23 19:23:00,22.8,16.4,29.70,NNW,337,13.0,22.0,76,0.00,,,0.01,WUHU216DAVISVP2,2013-11-24 00:23:00,
2013-11-23 19:24:00,22.8,16.4,29.70,NNW,341,11.0,22.0,76,0.00,,,0.01,WUHU216DAVISVP2,2013-11-24 00:24:00,
2013-11-23 19:25:00,22.8,16.4,29.70,NNW,348,10.0,22.0,76,0.00,,,0.01,WUHU216DAVISVP2,2013-11-24 00:25:00,
2013-11-23 19:26:00,22.8,16.4,29.70,North,354,9.0,22.0,76,0.00,,,0.01,WUHU216DAVISVP2,2013-11-24 00:26:00,
2013-11-23 19:27:00,22.8,16.4,29.70,NNW,335,11.0,22.0,76,0.00,,,0.01,WUHU216DAVISVP2,2013-11-24 00:27:00,
2013-11-23 19:28:00,22.8,16.7,29.70,NNW,345,9.0,22.0,77,0.00,,,0.01,WUHU216DAVISVP2,2013-11-24 00:28:00,
2013-11-23 19:30:00,22.8,16.7,29.70,NNW,343,13.0,22.0,77,0.00,,,0.01,WUHU216DAVISVP2,2013-11-24 00:30:00,
2013-11-23 19:31:00,22.8,16.7,29.70,NNW,338,9.0,22.0,77,0.00,,,0.01,WUHU216DAVISVP2,2013-11-24 00:31:00,
2013-11-23 19:32:00,22.7,16.6,29.70,NW,315,9.0,22.0,77,0.00,,,0.01,WUHU216DAVISVP2,2013-11-24 00:32:00,
2013-11-23 19:34:00,22.7,16.6,29.70,NNW,343,12.0,22.0,77,0.00,,,0.01,WUHU216DAVISVP2,2013-11-24 00:34:00,
2013-11-23 19:35:00,22.7,16.6,29.71,NW,324,10.0,22.0,77,0.00,,,0.01,WUHU216DAVISVP2,2013-11-24 00:35:00,
2013-11-23 19:36:00,22.7,16.6,29.70,NNW,332,10.0,22.0,77,0.00,,,0.01,WUHU216DAVISVP2,2013-11-24 00:36:00,
2013-11-23 19:37:00,22.7,16.6,29.70,NNW,334,12.0,19.0,77,0.00,,,0.01,WUHU216DAVISVP2,2013-11-24 00:37:00,
2013-11-23 19:39:00,22.7,16.6,29.71,North,359,9.0,19.0,77,0.00,,,0.01,WUHU216DAVISVP2,2013-11-24 00:39:00,
2013-11-23 19:40:00,22.7,16.9,29.71,NW,322,12.0,19.0,78,0.00,,,0.01,WUHU216DAVISVP2,2013-11-24 00:40:00,
2013-11-23 19:41:00,22.7,16.9,29.71,NNW,333,11.0,19.0,78,0.00,,,0.01,WUHU216DAVISVP2,2013-11-24 00:41:00,
2013-11-23 19:42:00,22.7,16.9,29.71,North,354,9.0,18.0,78,0.00,,,0.01,WUHU216DAVISVP2,2013-11-24 00:42:00,
2013-11-23 19:44:00,22.7,16.9,29.71,North,350,13.0,18.0,78,0.00,,,0.01,WUHU216DAVISVP2,2013-11-24 00:44:00,
2013-11-23 19:45:00,22.7,16.9,29.71,NNW,332,11.0,18.0,78,0.00,,,0.01,WUHU216DAVISVP2,2013-11-24 00:45:00,
2013-11-23 19:47:00,22.7,16.9,29.71,NNW,343,11.0,18.0,78,0.00,,,0.01,WUHU216DAVISVP2,2013-11-24 00:47:00,
2013-11-23 19:49:00,22.7,16.9,29.72,North,354,12.0,18.0,78,0.00,,,0.01,WUHU216DAVISVP2,2013-11-24 00:49:00,
2013-11-23 19:51:00,22.7,16.9,29.72,NNW,343,13.0,18.0,78,0.00,,,0.01,WUHU216DAVISVP2,2013-11-24 00:51:00,
2013-11-23 19:52:00,22.7,16.9,29.72,NW,322,8.0,18.0,78,0.00,,,0.01,WUHU216DAVISVP2,2013-11-24 00:52:00,
2013-11-23 19:53:00,22.7,16.9,29.72,NNW,347,14.0,18.0,78,0.00,,,0.01,WUHU216DAVISVP2,2013-11-24 00:53:00,
2013-11-23 19:54:00,22.7,16.9,29.72,NNW,346,16.0,18.0,78,0.00,,,0.01,WUHU216DAVISVP2,2013-11-24 00:54:00,
2013-11-23 19:57:00,22.7,16.9,29.72,NNW,335,14.0,20.0,78,0.00,,,0.01,WUHU216DAVISVP2,2013-11-24 00:57:00,
2013-11-23 19:58:00,22.7,16.9,29.72,NNW,339,15.0,20.0,78,0.00,,,0.01,WUHU216DAVISVP2,2013-11-24 00:58:00,
2013-11-23 19:59:00,22.7,16.9,29.72,NNW,339,9.0,20.0,78,0.00,,,0.01,WUHU216DAVISVP2,2013-11-24 00:59:00,
2013-11-23 20:02:00,22.7,16.9,29.72,North,354,8.0,20.0,78,0.00,,,0.01,WUHU216DAVISVP2,2013-11-24 01:02:00,
2013-11-23 20:03:00,22.7,16.9,29.72,NNW,345,11.0,20.0,78,0.00,,,0.01,WUHU216DAVISVP2,2013-11-24 01:03:00,
2013-11-23 20:05:00,22.7,16.9,29.72,North,359,10.0,20.0,78,0.00,,,0.01,WUHU216DAVISVP2,2013-11-24 01:05:00,
2013-11-23 20:07:00,22.6,16.8,29.72,North,349,11.0,20.0,78,0.00,,,0.01,WUHU216DAVISVP2,2013-11-24 01:07:00,
2013-11-23 20:08:00,22.6,16.8,29.72,NNW,332,11.0,20.0,78,0.00,,,0.01,WUHU216DAVISVP2,2013-11-24 01:08:00,
2013-11-23 20:10:00,22.6,16.8,29.72,NNW,337,11.0,20.0,78,0.00,,,0.01,WUHU216DAVISVP2,2013-11-24 01:10:00,
2013-11-23 20:13:00,22.6,16.8,29.72,North,359,9.0,20.0,78,0.00,,,0.01,WUHU216DAVISVP2,2013-11-24 01:13:00,
2013-11-23 20:14:00,22.6,16.8,29.72,NNW,347,10.0,20.0,78,0.00,,,0.01,WUHU216DAVISVP2,2013-11-24 01:14:00,
2013-11-23 20:16:00,22.7,16.9,29.72,North,10,10.0,20.0,78,0.00,,,0.01,WUHU216DAVISVP2,2013-11-24 01:16:00,
2013-11-23 20:18:00,22.6,16.8,29.72,NNW,347,13.0,16.0,78,0.00,,,0.01,WUHU216DAVISVP2,2013-11-24 01:18:00,
2013-11-23 20:19:00,22.6,16.8,29.72,North,4,9.0,16.0,78,0.00,,,0.01,WUHU216DAVISVP2,2013-11-24 01:19:00,
2013-11-23 20:21:00,22.7,16.9,29.72,North,4,13.0,18.0,78,0.00,,,0.01,WUHU216DAVISVP2,2013-11-24 01:21:00,
2013-11-23 20:23:00,22.7,16.9,29.72,North,4,12.0,18.0,78,0.00,,,0.01,WUHU216DAVISVP2,2013-11-24 01:23:00,
2013-11-23 20:24:00,22.7,16.9,29.72,NNW,343,12.0,18.0,78,0.00,,,0.01,WUHU216DAVISVP2,2013-11-24 01:24:00,
2013-11-23 20:26:00,22.7,16.9,29.72,NNW,329,8.0,18.0,78,0.00,,,0.01,WUHU216DAVISVP2,2013-11-24 01:26:00,
2013-11-23 20:28:00,22.7,16.9,29.72,NNW,342,18.0,18.0,78,0.00,,,0.01,WUHU216DAVISVP2,2013-11-24 01:28:00,
2013-11-23 20:29:00,22.7,16.9,29.72,North,349,13.0,19.0,78,0.00,,,0.01,WUHU216DAVISVP2,2013-11-24 01:29:00,
2013-11-23 20:31:00,22.7,16.9,29.72,North,354,7.0,19.0,78,0.00,,,0.01,WUHU216DAVISVP2,2013-11-24 01:31:00,
2013-11-23 20:33:00,22.7,16.6,29.73,North,354,10.0,19.0,77,0.00,,,0.01,WUHU216DAVISVP2,2013-11-24 01:33:00,
2013-11-23 20:34:00,22.7,16.6,29.73,North,8,15.0,19.0,77,0.00,,,0.01,WUHU216DAVISVP2,2013-11-24 01:34:00,
2013-11-23 20:35:00,22.7,16.6,29.73,NNW,340,10.0,19.0,77,0.00,,,0.01,WUHU216DAVISVP2,2013-11-24 01:35:00,
2013-11-23 20:36:00,22.7,16.6,29.73,North,354,11.0,19.0,77,0.00,,,0.01,WUHU216DAVISVP2,2013-11-24 01:36:00,
2013-11-23 20:38:00,22.7,16.6,29.73,North,4,8.0,19.0,77,0.00,,,0.01,WUHU216DAVISVP2,2013-11-24 01:38:00,
2013-11-23 20:39:00,22.7,16.6,29.73,NW,321,15.0,19.0,77,0.00,,,0.01,WUHU216DAVISVP2,2013-11-24 01:39:00,
2013-11-23 20:40:00,22.7,16.6,29.73,North,354,14.0,19.0,77,0.00,,,0.01,WUHU216DAVISVP2,2013-11-24 01:40:00,
2013-11-23 20:42:00,22.7,16.3,29.73,North,349,10.0,19.0,76,0.00,,,0.01,WUHU216DAVISVP2,2013-11-24 01:42:00,
2013-11-23 20:44:00,22.7,16.3,29.73,NNW,343,9.0,19.0,76,0.00,,,0.01,WUHU216DAVISVP2,2013-11-24 01:44:00,
2013-11-23 20:45:00,22.8,16.4,29.73,North,10,9.0,19.0,76,0.00,,,0.01,WUHU216DAVISVP2,2013-11-24 01:45:00,
2013-11-23 20:46:00,22.7,16.3,29.73,NNW,327,13.0,19.0,76,0.00,,,0.01,WUHU216DAVISVP2,2013-11-24 01:46:00,
2013-11-23 20:48:00,22.8,16.4,29.73,NNW,334,10.0,18.0,76,0.00,,,0.01,WUHU216DAVISVP2,2013-11-24 01:48:00,
2013-11-23 20:49:00,22.8,16.4,29.73,North,354,9.0,18.0,76,0.00,,,0.01,WUHU216DAVISVP2,2013-11-24 01:49:00,
2013-11-23 20:50:00,22.8,16.4,29.73,North,359,10.0,18.0,76,0.00,,,0.01,WUHU216DAVISVP2,2013-11-24 01:50:00,
2013-11-23 20:51:00,22.8,16.4,29.73,NW,325,12.0,18.0,76,0.00,,,0.01,WUHU216DAVISVP2,2013-11-24 01:51:00,
2013-11-23 20:54:00,22.8,16.4,29.73,North,4,12.0,18.0,76,0.00,,,0.01,WUHU216DAVISVP2,2013-11-24 01:54:00,
2013-11-23 20:55:00,22.8,16.4,29.73,NNE,17,13.0,18.0,76,0.00,,,0.01,WUHU216DAVISVP2,2013-11-24 01:55:00,
2013-11-23 20:56:00,22.8,16.4,29.73,NNW,343,10.0,18.0,76,0.00,,,0.01,WUHU216DAVISVP2,2013-11-24 01:56:00,
2013-11-23 20:57:00,22.8,16.4,29.73,North,359,10.0,18.0,76,0.00,,,0.01,WUHU216DAVISVP2,2013-11-24 01:57:00,
2013-11-23 20:59:00,22.8,16.4,29.73,North,4,10.0,18.0,76,0.00,,,0.01,WUHU216DAVISVP2,2013-11-24 01:59:00,
2013-11-23 21:00:00,22.7,16.3,29.73,North,354,12.0,18.0,76,0.00,,,0.01,WUHU216DAVISVP2,2013-11-24 02:00:00,
2013-11-23 21:01:00,22.7,16.3,29.73,North,4,14.0,18.0,76,0.00,,,0.01,WUHU216DAVISVP2,2013-11-24 02:01:00,
2013-11-23 21:02:00,22.7,16.3,29.73,NNE,21,15.0,18.0,76,0.00,,,0.01,WUHU216DAVISVP2,2013-11-24 02:02:00,
2013-11-23 21:04:00,22.7,16.3,29.73,North,354,8.0,18.0,76,0.00,,,0.01,WUHU216DAVISVP2,2013-11-24 02:04:00,
2013-11-23 21:05:00,22.7,16.3,29.73,NNW,341,9.0,18.0,76,0.00,,,0.01,WUHU216DAVISVP2,2013-11-24 02:05:00,
2013-11-23 21:06:00,22.6,16.2,29.73,North,4,11.0,18.0,76,0.00,,,0.01,WUHU216DAVISVP2,2013-11-24 02:06:00,
2013-11-23 21:07:00,22.6,16.2,29.73,North,354,12.0,18.0,76,0.00,,,0.01,WUHU216DAVISVP2,2013-11-24 02:07:00,
2013-11-23 21:09:00,22.6,16.5,29.73,NNE,13,14.0,19.0,77,0.00,,,0.01,WUHU216DAVISVP2,2013-11-24 02:09:00,
2013-11-23 21:10:00,22.5,16.4,29.73,North,4,15.0,19.0,77,0.00,,,0.01,WUHU216DAVISVP2,2013-11-24 02:10:00,
2013-11-23 21:11:00,22.5,16.4,29.73,North,4,13.0,19.0,77,0.00,,,0.01,WUHU216DAVISVP2,2013-11-24 02:11:00,
2013-11-23 21:13:00,22.5,16.4,29.73,NNW,347,11.0,19.0,77,0.00,,,0.01,WUHU216DAVISVP2,2013-11-24 02:13:00,
2013-11-23 21:14:00,22.5,16.4,29.73,NNW,342,8.0,19.0,77,0.00,,,0.01,WUHU216DAVISVP2,2013-11-24 02:14:00,
2013-11-23 21:15:00,22.5,16.4,29.73,NNW,335,11.0,19.0,77,0.00,,,0.01,WUHU216DAVISVP2,2013-11-24 02:15:00,
2013-11-23 21:16:00,22.4,16.3,29.73,North,8,7.0,19.0,77,0.00,,,0.01,WUHU216DAVISVP2,2013-11-24 02:16:00,
2013-11-23 21:17:00,22.4,16.3,29.73,North,359,10.0,19.0,77,0.00,,,0.01,WUHU216DAVISVP2,2013-11-24 02:17:00,
2013-11-23 21:18:00,22.4,16.3,29.73,North,354,12.0,19.0,77,0.00,,,0.01,WUHU216DAVISVP2,2013-11-24 02:18:00,
2013-11-23 21:20:00,22.3,16.5,29.73,North,354,8.0,19.0,78,0.00,,,0.01,WUHU216DAVISVP2,2013-11-24 02:20:00,
2013-11-23 21:21:00,22.3,16.5,29.73,NNW,345,9.0,19.0,78,0.00,,,0.01,WUHU216DAVISVP2,2013-11-24 02:21:00,
2013-11-23 21:22:00,22.3,16.5,29.73,NNW,339,7.0,19.0,78,0.00,,,0.01,WUHU216DAVISVP2,2013-11-24 02:22:00,
2013-11-23 21:23:00,22.3,16.5,29.73,North,349,11.0,19.0,78,0.00,,,0.01,WUHU216DAVISVP2,2013-11-24 02:23:00,
2013-11-23 21:25:00,22.2,16.4,29.73,NNW,332,8.0,19.0,78,0.00,,,0.01,WUHU216DAVISVP2,2013-11-24 02:25:00,
2013-11-23 21:26:00,22.2,16.4,29.73,NNW,341,15.0,19.0,78,0.00,,,0.01,WUHU216DAVISVP2,2013-11-24 02:26:00,
2013-11-23 21:28:00,22.2,16.4,29.73,NNE,16,13.0,19.0,78,0.00,,,0.01,WUHU216DAVISVP2,2013-11-24 02:28:00,
2013-11-23 21:30:00,22.1,16.6,29.73,NNW,347,11.0,18.0,79,0.00,,,0.01,WUHU216DAVISVP2,2013-11-24 02:30:00,
2013-11-23 21:31:00,22.1,16.6,29.73,North,359,10.0,18.0,79,0.00,,,0.01,WUHU216DAVISVP2,2013-11-24 02:31:00,
2013-11-23 21:33:00,22.1,16.6,29.73,NNW,345,13.0,19.0,79,0.00,,,0.01,WUHU216DAVISVP2,2013-11-24 02:33:00,
2013-11-23 21:34:00,22.2,16.7,29.73,North,8,12.0,19.0,79,0.00,,,0.01,WUHU216DAVISVP2,2013-11-24 02:34:00,
2013-11-23 21:36:00,22.2,16.4,29.73,North,4,8.0,19.0,78,0.00,,,0.01,WUHU216DAVISVP2,2013-11-24 02:36:00,
2013-11-23 21:38:00,22.2,16.7,29.73,NNW,341,12.0,19.0,79,0.00,,,0.01,WUHU216DAVISVP2,2013-11-24 02:38:00,
2013-11-23 21:39:00,22.2,16.7,29.73,North,354,9.0,19.0,79,0.00,,,0.01,WUHU216DAVISVP2,2013-11-24 02:39:00,
2013-11-23 21:41:00,22.2,16.7,29.73,North,4,12.0,19.0,79,0.00,,,0.01,WUHU216DAVISVP2,2013-11-24 02:41:00,
2013-11-23 21:43:00,22.2,16.7,29.73,North,8,11.0,19.0,79,0.00,,,0.01,WUHU216DAVISVP2,2013-11-24 02:43:00,
2013-11-23 21:44:00,22.1,16.6,29.73,NNW,347,13.0,19.0,79,0.00,,,0.01,WUHU216DAVISVP2,2013-11-24 02:44:00,
2013-11-23 21:45:00,22.1,16.6,29.73,North,354,9.0,19.0,79,0.00,,,0.01,WUHU216DAVISVP2,2013-11-24 02:45:00,
2013-11-23 21:46:00,22.1,16.6,29.73,North,354,9.0,19.0,79,0.00,,,0.01,WUHU216DAVISVP2,2013-11-24 02:46:00,
2013-11-23 21:47:00,22.1,16.6,29.73,NNW,333,13.0,19.0,79,0.00,,,0.01,WUHU216DAVISVP2,2013-11-24 02:47:00,
2013-11-23 21:48:00,22.1,16.6,29.73,North,4,11.0,19.0,79,0.00,,,0.01,WUHU216DAVISVP2,2013-11-24 02:48:00,
2013-11-23 21:50:00,22.0,16.5,29.73,North,4,5.0,19.0,79,0.00,,,0.01,WUHU216DAVISVP2,2013-11-24 02:50:00,
2013-11-23 21:51:00,22.0,16.5,29.73,North,354,9.0,19.0,79,0.00,,,0.01,WUHU216DAVISVP2,2013-11-24 02:51:00,
2013-11-23 21:52:00,22.0,16.5,29.73,North,349,8.0,19.0,79,0.00,,,0.01,WUHU216DAVISVP2,2013-11-24 02:52:00,
2013-11-23 21:54:00,21.9,16.4,29.73,NNW,343,8.0,16.0,79,0.00,,,0.01,WUHU216DAVISVP2,2013-11-24 02:54:00,
2013-11-23 21:55:00,21.9,16.4,29.73,North,359,7.0,16.0,79,0.00,,,0.01,WUHU216DAVISVP2,2013-11-24 02:55:00,
2013-11-23 21:56:00,21.9,16.4,29.73,NNW,341,6.0,16.0,79,0.00,,,0.01,WUHU216DAVISVP2,2013-11-24 02:56:00,
2013-11-23 21:57:00,21.8,16.3,29.73,North,354,8.0,16.0,79,0.00,,,0.01,WUHU216DAVISVP2,2013-11-24 02:57:00,
2013-11-23 21:59:00,21.8,16.6,29.73,North,354,5.0,14.0,80,0.00,,,0.01,WUHU216DAVISVP2,2013-11-24 02:59:00,
2013-11-23 22:00:00,21.8,16.6,29.73,NE,47,4.0,14.0,80,0.00,,,0.01,WUHU216DAVISVP2,2013-11-24 03:00:00,
2013-11-23 22:01:00,21.8,16.6,29.73,North,359,8.0,14.0,80,0.00,,,0.01,WUHU216DAVISVP2,2013-11-24 03:01:00,
2013-11-23 22:02:00,21.8,16.6,29.73,North,354,6.0,14.0,80,0.00,,,0.01,WUHU216DAVISVP2,2013-11-24 03:02:00,
2013-11-23 22:04:00,21.7,16.5,29.73,NNW,342,6.0,14.0,80,0.00,,,0.01,WUHU216DAVISVP2,2013-11-24 03:04:00,
2013-11-23 22:05:00,21.7,16.5,29.73,North,354,8.0,14.0,80,0.00,,,0.01,WUHU216DAVISVP2,2013-11-24 03:05:00,
2013-11-23 22:06:00,21.7,16.5,29.73,NNW,348,8.0,13.0,80,0.00,,,0.01,WUHU216DAVISVP2,2013-11-24 03:06:00,
2013-11-23 22:07:00,21.7,16.2,29.73,North,350,5.0,13.0,79,0.00,,,0.01,WUHU216DAVISVP2,2013-11-24 03:07:00,
2013-11-23 22:09:00,21.7,16.2,29.73,North,4,7.0,12.0,79,0.00,,,0.01,WUHU216DAVISVP2,2013-11-24 03:09:00,
2013-11-23 22:10:00,21.7,16.2,29.73,NNW,334,7.0,12.0,79,0.00,,,0.01,WUHU216DAVISVP2,2013-11-24 03:10:00,
2013-11-23 22:11:00,21.7,16.2,29.73,NNW,339,8.0,11.0,79,0.00,,,0.01,WUHU216DAVISVP2,2013-11-24 03:11:00,
2013-11-23 22:12:00,21.7,16.2,29.74,North,349,8.0,11.0,79,0.00,,,0.01,WUHU216DAVISVP2,2013-11-24 03:12:00,
2013-11-23 22:14:00,21.6,16.1,29.73,NNW,345,6.0,10.0,79,0.00,,,0.01,WUHU216DAVISVP2,2013-11-24 03:14:00,
2013-11-23 22:15:00,21.6,16.1,29.73,North,359,11.0,12.0,79,0.00,,,0.01,WUHU216DAVISVP2,2013-11-24 03:15:00,
2013-11-23 22:16:00,21.6,16.1,29.73,North,350,12.0,12.0,79,0.00,,,0.01,WUHU216DAVISVP2,2013-11-24 03:16:00,
2013-11-23 22:17:00,21.6,16.1,29.73,NNW,335,7.0,13.0,79,0.00,,,0.01,WUHU216DAVISVP2,2013-11-24 03:17:00,
2013-11-23 22:19:00,21.7,16.2,29.74,NNW,343,11.0,13.0,79,0.00,,,0.01,WUHU216DAVISVP2,2013-11-24 03:19:00,
2013-11-23 22:21:00,21.7,16.2,29.74,North,354,7.0,13.0,79,0.00,,,0.01,WUHU216DAVISVP2,2013-11-24 03:21:00,
2013-11-23 22:22:00,21.8,16.3,29.74,North,4,14.0,14.0,79,0.00,,,0.01,WUHU216DAVISVP2,2013-11-24 03:22:00,
2013-11-23 22:23:00,21.8,16.3,29.74,NNW,338,10.0,14.0,79,0.00,,,0.01,WUHU216DAVISVP2,2013-11-24 03:23:00,
2013-11-23 22:24:00,21.8,16.3,29.74,North,8,9.0,14.0,79,0.00,,,0.01,WUHU216DAVISVP2,2013-11-24 03:24:00,
2013-11-23 22:26:00,21.9,16.4,29.74,NNE,17,8.0,14.0,79,0.00,,,0.01,WUHU216DAVISVP2,2013-11-24 03:26:00,
2013-11-23 22:27:00,21.9,16.4,29.74,NNW,342,7.0,14.0,79,0.00,,,0.01,WUHU216DAVISVP2,2013-11-24 03:27:00,
2013-11-23 22:28:00,21.9,16.4,29.74,North,4,7.0,14.0,79,0.00,,,0.01,WUHU216DAVISVP2,2013-11-24 03:28:00,
2013-11-23 22:29:00,21.9,16.4,29.74,North,359,8.0,14.0,79,0.00,,,0.01,WUHU216DAVISVP2,2013-11-24 03:29:00,
2013-11-23 22:31:00,21.9,16.4,29.74,NNE,27,11.0,14.0,79,0.00,,,0.01,WUHU216DAVISVP2,2013-11-24 03:31:00,
2013-11-23 22:32:00,21.9,16.4,29.74,NNE,14,9.0,14.0,79,0.00,,,0.01,WUHU216DAVISVP2,2013-11-24 03:32:00,
2013-11-23 22:33:00,22.0,16.5,29.74,NNE,12,8.0,14.0,79,0.00,,,0.01,WUHU216DAVISVP2,2013-11-24 03:33:00,
2013-11-23 22:35:00,22.0,16.5,29.74,NNE,13,10.0,14.0,79,0.00,,,0.01,WUHU216DAVISVP2,2013-11-24 03:35:00,
2013-11-23 22:36:00,22.0,16.8,29.74,NNE,22,8.0,14.0,80,0.00,,,0.01,WUHU216DAVISVP2,2013-11-24 03:36:00,
2013-11-23 22:37:00,22.0,16.8,29.74,NE,56,9.0,14.0,80,0.00,,,0.01,WUHU216DAVISVP2,2013-11-24 03:37:00,
2013-11-23 22:38:00,22.0,16.8,29.74,NE,44,7.0,14.0,80,0.00,,,0.01,WUHU216DAVISVP2,2013-11-24 03:38:00,
2013-11-23 22:39:00,22.0,16.8,29.74,ENE,65,5.0,14.0,80,0.00,,,0.01,WUHU216DAVISVP2,2013-11-24 03:39:00,
2013-11-23 22:40:00,21.9,17.0,29.74,ENE,64,2.0,14.0,81,0.00,,,0.01,WUHU216DAVISVP2,2013-11-24 03:40:00,
2013-11-23 22:42:00,21.9,17.0,29.74,ENE,64,5.0,14.0,81,0.00,,,0.01,WUHU216DAVISVP2,2013-11-24 03:42:00,
2013-11-23 22:43:00,21.8,16.9,29.74,NE,40,8.0,13.0,81,0.00,,,0.01,WUHU216DAVISVP2,2013-11-24 03:43:00,
2013-11-23 22:44:00,21.8,16.9,29.74,NE,42,8.0,13.0,81,0.00,,,0.01,WUHU216DAVISVP2,2013-11-24 03:44:00,
2013-11-23 22:46:00,21.6,16.9,29.74,NE,50,5.0,13.0,82,0.00,,,0.01,WUHU216DAVISVP2,2013-11-24 03:46:00,
2013-11-23 22:47:00,21.6,16.9,29.74,NE,53,4.0,13.0,82,0.00,,,0.01,WUHU216DAVISVP2,2013-11-24 03:47:00,
2013-11-23 22:48:00,21.6,17.2,29.74,NE,52,7.0,13.0,83,0.00,,,0.01,WUHU216DAVISVP2,2013-11-24 03:48:00,
2013-11-23 22:49:00,21.5,17.1,29.74,ENE,58,7.0,13.0,83,0.00,,,0.01,WUHU216DAVISVP2,2013-11-24 03:49:00,
2013-11-23 22:51:00,21.4,17.0,29.74,NE,49,7.0,12.0,83,0.00,,,0.01,WUHU216DAVISVP2,2013-11-24 03:51:00,
2013-11-23 22:53:00,21.3,17.2,29.74,NE,43,6.0,12.0,84,0.00,,,0.01,WUHU216DAVISVP2,2013-11-24 03:53:00,
2013-11-23 22:54:00,21.3,17.2,29.74,ENE,61,7.0,12.0,84,0.00,,,0.01,WUHU216DAVISVP2,2013-11-24 03:54:00,
2013-11-23 22:55:00,21.3,17.2,29.74,ENE,63,5.0,12.0,84,0.00,,,0.01,WUHU216DAVISVP2,2013-11-24 03:55:00,
2013-11-23 22:56:00,21.2,17.1,29.74,NE,54,1.0,10.0,84,0.00,,,0.01,WUHU216DAVISVP2,2013-11-24 03:56:00,
2013-11-23 22:58:00,21.2,17.1,29.74,NE,41,9.0,11.0,84,0.00,,,0.01,WUHU216DAVISVP2,2013-11-24 03:58:00,
2013-11-23 22:59:00,21.1,17.0,29.74,NE,54,6.0,11.0,84,0.00,,,0.01,WUHU216DAVISVP2,2013-11-24 03:59:00,
2013-11-23 23:00:00,21.1,17.0,29.75,ENE,68,8.0,11.0,84,0.00,,,0.01,WUHU216DAVISVP2,2013-11-24 04:00:00,
2013-11-23 23:02:00,20.9,16.8,29.75,NE,54,7.0,11.0,84,0.00,,,0.01,WUHU216DAVISVP2,2013-11-24 04:02:00,
2013-11-23 23:03:00,20.9,16.8,29.75,ENE,64,10.0,11.0,84,0.00,,,0.01,WUHU216DAVISVP2,2013-11-24 04:03:00,
2013-11-23 23:04:00,20.9,16.8,29.74,ENE,58,5.0,11.0,84,0.00,,,0.01,WUHU216DAVISVP2,2013-11-24 04:04:00,
2013-11-23 23:05:00,20.9,16.8,29.74,ENE,58,5.0,11.0,84,0.00,,,0.01,WUHU216DAVISVP2,2013-11-24 04:05:00,
2013-11-23 23:07:00,20.8,16.7,29.74,ENE,58,7.0,11.0,84,0.00,,,0.01,WUHU216DAVISVP2,2013-11-24 04:07:00,
2013-11-23 23:08:00,20.8,16.7,29.74,ENE,58,7.0,11.0,84,0.00,,,0.01,WUHU216DAVISVP2,2013-11-24 04:08:00,
2013-11-23 23:09:00,20.8,16.7,29.74,ENE,58,6.0,11.0,84,0.00,,,0.01,WUHU216DAVISVP2,2013-11-24 04:09:00,
2013-11-23 23:10:00,20.7,16.6,29.75,ENE,58,4.0,11.0,84,0.00,,,0.01,WUHU216DAVISVP2,2013-11-24 04:10:00,
2013-11-23 23:11:00,20.7,16.6,29.75,ENE,58,4.0,11.0,84,0.00,,,0.01,WUHU216DAVISVP2,2013-11-24 04:11:00,
2013-11-23 23:12:00,20.7,16.6,29.75,ENE,58,5.0,11.0,84,0.00,,,0.01,WUHU216DAVISVP2,2013-11-24 04:12:00,
2013-11-23 23:14:00,20.7,16.6,29.74,ENE,58,6.0,11.0,84,0.00,,,0.01,WUHU216DAVISVP2,2013-11-24 04:14:00,
2013-11-23 23:15:00,20.7,16.6,29.74,ENE,58,6.0,11.0,84,0.00,,,0.01,WUHU216DAVISVP2,2013-11-24 04:15:00,
2013-11-23 23:16:00,20.7,16.6,29.74,ENE,58,4.0,11.0,84,0.00,,,0.01,WUHU216DAVISVP2,2013-11-24 04:16:00,
2013-11-23 23:17:00,20.7,16.6,29.74,NE,36,7.0,11.0,84,0.00,,,0.01,WUHU216DAVISVP2,2013-11-24 04:17:00,
2013-11-23 23:19:00,20.7,16.6,29.74,NE,40,5.0,11.0,84,0.00,,,0.01,WUHU216DAVISVP2,2013-11-24 04:19:00,
2013-11-23 23:20:00,20.6,16.5,29.75,NE,43,6.0,11.0,84,0.00,,,0.01,WUHU216DAVISVP2,2013-11-24 04:20:00,
2013-11-23 23:21:00,20.6,16.5,29.75,NE,51,6.0,11.0,84,0.00,,,0.01,WUHU216DAVISVP2,2013-11-24 04:21:00,
2013-11-23 23:22:00,20.6,16.5,29.75,NE,50,6.0,11.0,84,0.00,,,0.01,WUHU216DAVISVP2,2013-11-24 04:22:00,
2013-11-23 23:24:00,20.6,16.5,29.75,NE,41,7.0,9.0,84,0.00,,,0.01,WUHU216DAVISVP2,2013-11-24 04:24:00,
2013-11-23 23:26:00,20.6,16.5,29.75,ENE,59,7.0,9.0,84,0.00,,,0.01,WUHU216DAVISVP2,2013-11-24 04:26:00,
2013-11-23 23:27:00,20.6,16.5,29.75,NE,49,6.0,9.0,84,0.00,,,0.01,WUHU216DAVISVP2,2013-11-24 04:27:00,
2013-11-23 23:28:00,20.6,16.5,29.75,NE,55,5.0,9.0,84,0.00,,,0.01,WUHU216DAVISVP2,2013-11-24 04:28:00,
2013-11-23 23:29:00,20.6,16.5,29.75,NNE,14,6.0,9.0,84,0.00,,,0.01,WUHU216DAVISVP2,2013-11-24 04:29:00,
2013-11-23 23:30:00,20.6,16.5,29.75,NE,41,7.0,9.0,84,0.00,,,0.01,WUHU216DAVISVP2,2013-11-24 04:30:00,
2013-11-23 23:31:00,20.6,16.5,29.75,NE,40,3.0,9.0,84,0.00,,,0.01,WUHU216DAVISVP2,2013-11-24 04:31:00,
2013-11-23 23:32:00,20.6,16.5,29.75,NE,41,6.0,9.0,84,0.00,,,0.01,WUHU216DAVISVP2,2013-11-24 04:32:00,
2013-11-23 23:33:00,20.6,16.5,29.75,NE,43,8.0,9.0,84,0.00,,,0.01,WUHU216DAVISVP2,2013-11-24 04:33:00,
2013-11-23 23:34:00,20.6,16.5,29.75,NNE,31,7.0,9.0,84,0.00,,,0.01,WUHU216DAVISVP2,2013-11-24 04:34:00,
2013-11-23 23:35:00,20.6,16.5,29.75,NE,50,8.0,9.0,84,0.00,,,0.01,WUHU216DAVISVP2,2013-11-24 04:35:00,
2013-11-23 23:37:00,20.6,16.5,29.75,NE,49,8.0,9.0,84,0.00,,,0.01,WUHU216DAVISVP2,2013-11-24 04:37:00,
2013-11-23 23:38:00,20.6,16.5,29.75,ENE,58,3.0,9.0,84,0.00,,,0.01,WUHU216DAVISVP2,2013-11-24 04:38:00,
2013-11-23 23:40:00,20.6,16.5,29.75,NNE,12,6.0,9.0,84,0.00,,,0.01,WUHU216DAVISVP2,2013-11-24 04:40:00,
2013-11-23 23:42:00,20.5,16.4,29.75,NNE,12,6.0,9.0,84,0.00,,,0.01,WUHU216DAVISVP2,2013-11-24 04:42:00,
2013-11-23 23:43:00,20.5,16.4,29.75,NNE,22,7.0,9.0,84,0.00,,,0.01,WUHU216DAVISVP2,2013-11-24 04:43:00,
2013-11-23 23:44:00,20.5,16.4,29.75,NE,55,4.0,9.0,84,0.00,,,0.01,WUHU216DAVISVP2,2013-11-24 04:44:00,
2013-11-23 23:45:00,20.5,16.4,29.75,NE,52,7.0,9.0,84,0.00,,,0.01,WUHU216DAVISVP2,2013-11-24 04:45:00,
2013-11-23 23:47:00,20.4,16.3,29.75,NE,39,2.0,9.0,84,0.00,,,0.01,WUHU216DAVISVP2,2013-11-24 04:47:00,
2013-11-23 23:48:00,20.4,16.3,29.75,NE,39,6.0,9.0,84,0.00,,,0.01,WUHU216DAVISVP2,2013-11-24 04:48:00,
2013-11-23 23:49:00,20.4,16.3,29.75,NE,39,4.0,9.0,84,0.00,,,0.01,WUHU216DAVISVP2,2013-11-24 04:49:00,
2013-11-23 23:50:00,20.4,16.3,29.75,NE,39,6.0,9.0,84,0.00,,,0.01,WUHU216DAVISVP2,2013-11-24 04:50:00,
2013-11-23 23:51:00,20.3,16.2,29.75,NE,39,2.0,9.0,84,0.00,,,0.01,WUHU216DAVISVP2,2013-11-24 04:51:00,
2013-11-23 23:52:00,20.4,16.3,29.75,NE,39,7.0,9.0,84,0.00,,,0.01,WUHU216DAVISVP2,2013-11-24 04:52:00,
2013-11-23 23:53:00,20.3,16.2,29.75,NE,38,5.0,9.0,84,0.00,,,0.01,WUHU216DAVISVP2,2013-11-24 04:53:00,
2013-11-23 23:54:00,20.3,16.2,29.75,NE,38,5.0,9.0,84,0.00,,,0.01,WUHU216DAVISVP2,2013-11-24 04:54:00,
2013-11-23 23:55:00,20.3,16.2,29.76,NE,39,2.0,9.0,84,0.00,,,0.01,WUHU216DAVISVP2,2013-11-24 04:55:00,
2013-11-23 23:56:00,20.3,16.2,29.76,NE,38,3.0,9.0,84,0.00,,,0.01,WUHU216DAVISVP2,2013-11-24 04:56:00,
2013-11-23 23:57:00,20.3,16.2,29.76,NE,38,5.0,9.0,84,0.00,,,0.01,WUHU216DAVISVP2,2013-11-24 04:57:00,
2013-11-23 23:58:00,20.3,16.2,29.76,NE,38,4.0,9.0,84,0.00,,,0.01,WUHU216DAVISVP2,2013-11-24 04:58:00,
2013-11-23 23:59:00,20.3,16.2,29.76,NE,38,4.0,9.0,84,0.00,,,0.01,WUHU216DAVISVP2,2013-11-24 04:59:00,